Wetterdaten: Dienstag, 14.09.2010
Datum Zeit Temp. Innen Temp. Aussen UV X Diff Temp. Feuchte Inne Feuchte Auss Sonnenschein Luftdruck Regen ab 0,1 Wind Sonnenschein T Regendauer Windben
14.09.2010 00:00 20,2 C 15,0 C 0,0 UV-I 0,0 C 56 % 76 % 0 % 1023,1 hPa 0,0 l/m 1,2 km/h (1 Bft) 0 min 2 min 4,8 km/h (1 Bft)
14.09.2010 00:02 20,2 C 15,1 C 0,0 UV-I 0,0 C 56 % 76 % 0 % 1023,1 hPa 0,0 l/m 1,2 km/h (1 Bft) 0 min 0 min 7,7 km/h (2 Bft)
14.09.2010 00:04 20,2 C 15,1 C 0,0 UV-I 0,0 C 57 % 76 % 0 % 1023,1 hPa 0,0 l/m 1,2 km/h (1 Bft) 0 min 0 min 7,7 km/h (2 Bft)
14.09.2010 00:06 20,2 C 14,9 C 0,0 UV-I 0,0 C 56 % 77 % 0 % 1022,8 hPa 0,0 l/m 2,0 km/h (1 Bft) 0 min 0 min 7,7 km/h (2 Bft)
14.09.2010 00:08 20,2 C 14,9 C 0,0 UV-I 0,0 C 56 % 77 % 0 % 1022,8 hPa 0,0 l/m 2,8 km/h (1 Bft) 0 min 0 min 5,5 km/h (1 Bft)
14.09.2010 00:10 20,2 C 14,9 C 0,0 UV-I 0,0 C 57 % 77 % 0 % 1022,8 hPa 0,0 l/m 3,6 km/h (1 Bft) 0 min 0 min 7,4 km/h (2 Bft)
14.09.2010 00:12 20,2 C 14,9 C 0,0 UV-I 0,0 C 57 % 77 % 0 % 1022,8 hPa 0,0 l/m 3,6 km/h (1 Bft) 0 min 0 min 7,4 km/h (2 Bft)
14.09.2010 00:14 20,1 C 14,9 C 0,0 UV-I 0,0 C 57 % 77 % 0 % 1022,8 hPa 0,0 l/m 3,2 km/h (1 Bft) 0 min 0 min 10,9 km/h (2 Bft)
14.09.2010 00:16 20,1 C 14,9 C 0,0 UV-I 0,0 C 57 % 77 % 0 % 1022,8 hPa 0,0 l/m 4,4 km/h (1 Bft) 0 min 0 min 22,9 km/h (4 Bft)
14.09.2010 00:18 20,1 C 14,9 C 0,0 UV-I 0,0 C 57 % 77 % 0 % 1022,8 hPa 0,0 l/m 4,8 km/h (1 Bft) 0 min 0 min 22,9 km/h (4 Bft)
14.09.2010 00:20 20,1 C 14,9 C 0,0 UV-I 0,0 C 57 % 77 % 0 % 1022,8 hPa 0,0 l/m 4,4 km/h (1 Bft) 0 min 0 min 3,5 km/h (1 Bft)
14.09.2010 00:22 20,1 C 14,9 C 0,0 UV-I 0,0 C 57 % 77 % 0 % 1022,8 hPa 0,0 l/m 4,0 km/h (1 Bft) 0 min 0 min 8,0 km/h (2 Bft)
14.09.2010 00:24 20,0 C 14,9 C 0,0 UV-I 0,0 C 57 % 77 % 0 % 1022,8 hPa 0,0 l/m 4,0 km/h (1 Bft) 0 min 2 min 22,9 km/h (4 Bft)
14.09.2010 00:26 20,0 C 14,9 C 0,0 UV-I 0,0 C 57 % 77 % 0 % 1022,8 hPa 0,0 l/m 4,4 km/h (1 Bft) 0 min 0 min 5,1 km/h (1 Bft)
14.09.2010 00:28 20,0 C 14,9 C 0,0 UV-I 0,0 C 57 % 77 % 0 % 1022,8 hPa 0,0 l/m 3,2 km/h (1 Bft) 0 min 0 min 5,1 km/h (1 Bft)
14.09.2010 00:30 20,0 C 15,0 C 0,0 UV-I 0,0 C 57 % 77 % 0 % 1022,8 hPa 0,0 l/m 4,0 km/h (1 Bft) 0 min 2 min 11,6 km/h (2 Bft)
14.09.2010 00:32 20,0 C 15,0 C 0,0 UV-I 0,0 C 57 % 77 % 0 % 1022,8 hPa 0,0 l/m 4,8 km/h (1 Bft) 0 min 2 min 11,6 km/h (2 Bft)
14.09.2010 00:34 20,0 C 15,0 C 0,0 UV-I 0,0 C 57 % 76 % 0 % 1022,8 hPa 0,0 l/m 4,8 km/h (1 Bft) 0 min 0 min 9,0 km/h (2 Bft)
14.09.2010 00:36 20,0 C 15,0 C 0,0 UV-I 0,0 C 57 % 77 % 0 % 1022,8 hPa 0,0 l/m 4,8 km/h (1 Bft) 0 min 2 min 5,8 km/h (2 Bft)
14.09.2010 00:38 20,0 C 15,0 C 0,0 UV-I 0,0 C 57 % 77 % 0 % 1022,8 hPa 0,0 l/m 4,0 km/h (1 Bft) 0 min 2 min 3,2 km/h (1 Bft)
14.09.2010 00:40 20,0 C 14,9 C 0,0 UV-I 0,0 C 57 % 77 % 0 % 1022,8 hPa 0,0 l/m 4,4 km/h (1 Bft) 0 min 2 min 6,4 km/h (2 Bft)
14.09.2010 00:42 19,9 C 14,9 C 0,0 UV-I 0,0 C 57 % 77 % 0 % 1022,8 hPa 0,0 l/m 3,2 km/h (1 Bft) 0 min 0 min 6,4 km/h (2 Bft)
14.09.2010 00:44 20,0 C 14,9 C 0,0 UV-I 0,0 C 57 % 77 % 0 % 1022,8 hPa 0,0 l/m 2,4 km/h (1 Bft) 0 min 0 min 4,2 km/h (1 Bft)
14.09.2010 00:46 20,0 C 14,9 C 0,0 UV-I 0,0 C 57 % 78 % 0 % 1022,7 hPa 0,0 l/m 2,8 km/h (1 Bft) 0 min 0 min 6,4 km/h (2 Bft)
14.09.2010 00:48 19,9 C 14,9 C 0,0 UV-I 0,0 C 57 % 78 % 0 % 1022,7 hPa 0,0 l/m 2,4 km/h (1 Bft) 0 min 2 min 6,4 km/h (2 Bft)
14.09.2010 00:50 19,9 C 14,8 C 0,0 UV-I 0,0 C 57 % 78 % 0 % 1022,7 hPa 0,0 l/m 2,0 km/h (1 Bft) 0 min 0 min 7,4 km/h (2 Bft)
14.09.2010 00:52 19,9 C 14,8 C 0,0 UV-I 0,0 C 57 % 78 % 0 % 1022,7 hPa 0,0 l/m 1,6 km/h (1 Bft) 0 min 0 min 7,4 km/h (2 Bft)
14.09.2010 00:54 19,9 C 14,9 C 0,0 UV-I 0,0 C 57 % 78 % 0 % 1022,7 hPa 0,0 l/m 2,0 km/h (1 Bft) 0 min 0 min 6,8 km/h (2 Bft)
14.09.2010 00:56 19,9 C 14,8 C 0,0 UV-I 0,0 C 57 % 78 % 0 % 1022,7 hPa 0,0 l/m 2,0 km/h (1 Bft) 0 min 0 min 6,8 km/h (2 Bft)
14.09.2010 00:58 19,9 C 14,9 C 0,0 UV-I 0,0 C 57 % 78 % 0 % 1022,7 hPa 0,0 l/m 1,6 km/h (1 Bft) 0 min 0 min 4,2 km/h (1 Bft)
14.09.2010 01:00 19,9 C 14,9 C 0,0 UV-I 0,0 C 57 % 78 % 0 % 1022,7 hPa 0,0 l/m 2,0 km/h (1 Bft) 0 min 0 min 6,1 km/h (2 Bft)
14.09.2010 01:02 19,9 C 14,9 C 0,0 UV-I 0,0 C 58 % 78 % 0 % 1022,7 hPa 0,0 l/m 1,6 km/h (1 Bft) 0 min 0 min 6,1 km/h (2 Bft)
14.09.2010 01:04 19,9 C 14,9 C 0,0 UV-I 0,0 C 58 % 78 % 0 % 1022,7 hPa 0,0 l/m 2,4 km/h (1 Bft) 0 min 0 min 0,0 km/h (0 Bft)
14.09.2010 01:06 19,9 C 14,9 C 0,0 UV-I 0,0 C 58 % 78 % 0 % 1022,5 hPa 0,0 l/m 1,6 km/h (1 Bft) 0 min 0 min 0,0 km/h (0 Bft)
14.09.2010 01:08 19,9 C 14,9 C 0,0 UV-I 0,0 C 58 % 78 % 0 % 1022,5 hPa 0,0 l/m 1,2 km/h (1 Bft) 0 min 0 min 3,2 km/h (1 Bft)
14.09.2010 01:10 19,9 C 14,9 C 0,0 UV-I 0,0 C 58 % 78 % 0 % 1022,5 hPa 0,0 l/m 2,4 km/h (1 Bft) 0 min 0 min 11,6 km/h (2 Bft)
14.09.2010 01:12 19,9 C 14,9 C 0,0 UV-I 0,0 C 58 % 78 % 0 % 1022,5 hPa 0,0 l/m 2,0 km/h (1 Bft) 0 min 0 min 11,6 km/h (2 Bft)
14.09.2010 01:16 19,8 C 14,8 C 0,0 UV-I 0,0 C 58 % 78 % 0 % 1022,5 hPa 0,0 l/m 1,6 km/h (1 Bft) 0 min 0 min 4,2 km/h (1 Bft)
14.09.2010 01:18 19,8 C 14,8 C 0,0 UV-I 0,0 C 58 % 78 % 0 % 1022,5 hPa 0,0 l/m 1,6 km/h (1 Bft) 0 min 0 min 3,5 km/h (1 Bft)
14.09.2010 01:20 19,9 C 14,8 C 0,0 UV-I 0,0 C 58 % 78 % 0 % 1022,5 hPa 0,0 l/m 1,6 km/h (1 Bft) 0 min 0 min 3,2 km/h (1 Bft)
14.09.2010 01:22 19,8 C 14,8 C 0,0 UV-I 0,0 C 58 % 78 % 0 % 1022,5 hPa 0,0 l/m 0,8 km/h (0 Bft) 0 min 0 min 4,5 km/h (1 Bft)
14.09.2010 01:24 19,8 C 14,8 C 0,0 UV-I 0,0 C 58 % 78 % 0 % 1022,5 hPa 0,0 l/m 1,6 km/h (1 Bft) 0 min 0 min 4,5 km/h (1 Bft)
14.09.2010 01:26 19,8 C 14,9 C 0,0 UV-I 0,0 C 58 % 79 % 0 % 1022,2 hPa 0,0 l/m 1,6 km/h (1 Bft) 0 min 0 min 3,9 km/h (1 Bft)
14.09.2010 01:28 19,8 C 14,9 C 0,0 UV-I 0,0 C 58 % 79 % 0 % 1022,2 hPa 0,0 l/m 2,4 km/h (1 Bft) 0 min 0 min 3,2 km/h (1 Bft)
14.09.2010 01:30 19,8 C 14,9 C 0,0 UV-I 0,0 C 58 % 79 % 0 % 1022,2 hPa 0,0 l/m 2,8 km/h (1 Bft) 0 min 0 min 5,1 km/h (1 Bft)
14.09.2010 01:32 19,8 C 14,9 C 0,0 UV-I 0,0 C 58 % 79 % 0 % 1022,2 hPa 0,0 l/m 3,6 km/h (1 Bft) 0 min 0 min 5,1 km/h (1 Bft)
14.09.2010 01:34 19,8 C 15,0 C 0,0 UV-I 0,0 C 58 % 79 % 0 % 1022,2 hPa 0,0 l/m 4,0 km/h (1 Bft) 0 min 0 min 3,9 km/h (1 Bft)
14.09.2010 01:36 19,8 C 15,1 C 0,0 UV-I 0,0 C 58 % 79 % 0 % 1022,2 hPa 0,0 l/m 3,6 km/h (1 Bft) 0 min 0 min 3,9 km/h (1 Bft)
14.09.2010 01:38 19,8 C 15,1 C 0,0 UV-I 0,0 C 58 % 79 % 0 % 1022,2 hPa 0,0 l/m 3,2 km/h (1 Bft) 0 min 0 min 5,5 km/h (1 Bft)
14.09.2010 01:40 19,8 C 15,1 C 0,0 UV-I 0,0 C 58 % 79 % 0 % 1022,2 hPa 0,0 l/m 3,6 km/h (1 Bft) 0 min 0 min 6,1 km/h (2 Bft)
14.09.2010 01:42 19,8 C 15,1 C 0,0 UV-I 0,0 C 58 % 79 % 0 % 1022,2 hPa 0,0 l/m 2,8 km/h (1 Bft) 0 min 0 min 6,1 km/h (2 Bft)
14.09.2010 01:44 19,8 C 15,1 C 0,0 UV-I 0,0 C 58 % 79 % 0 % 1022,2 hPa 0,0 l/m 3,2 km/h (1 Bft) 0 min 0 min 4,8 km/h (1 Bft)
14.09.2010 01:46 19,8 C 15,0 C 0,0 UV-I 0,0 C 58 % 79 % 0 % 1021,7 hPa 0,0 l/m 3,2 km/h (1 Bft) 0 min 0 min 4,8 km/h (1 Bft)
14.09.2010 01:48 19,8 C 15,0 C 0,0 UV-I 0,0 C 58 % 79 % 0 % 1021,7 hPa 0,0 l/m 4,0 km/h (1 Bft) 0 min 0 min 5,8 km/h (2 Bft)
14.09.2010 01:50 19,8 C 15,1 C 0,0 UV-I 0,0 C 58 % 79 % 0 % 1021,7 hPa 0,0 l/m 4,8 km/h (1 Bft) 0 min 0 min 6,1 km/h (2 Bft)
14.09.2010 01:52 19,8 C 15,1 C 0,0 UV-I 0,0 C 58 % 79 % 0 % 1021,7 hPa 0,0 l/m 5,2 km/h (1 Bft) 0 min 0 min 9,3 km/h (2 Bft)
14.09.2010 01:54 19,8 C 15,1 C 0,0 UV-I 0,0 C 58 % 79 % 0 % 1021,7 hPa 0,0 l/m 5,6 km/h (1 Bft) 0 min 0 min 9,3 km/h (2 Bft)
14.09.2010 01:56 19,8 C 15,1 C 0,0 UV-I 0,0 C 58 % 79 % 0 % 1021,7 hPa 0,0 l/m 6,4 km/h (2 Bft) 0 min 0 min 7,7 km/h (2 Bft)
14.09.2010 01:58 19,8 C 15,1 C 0,0 UV-I 0,0 C 59 % 79 % 0 % 1021,7 hPa 0,0 l/m 6,4 km/h (2 Bft) 0 min 0 min 7,7 km/h (2 Bft)
14.09.2010 02:00 19,7 C 15,2 C 0,0 UV-I 0,0 C 59 % 79 % 0 % 1021,7 hPa 0,0 l/m 6,4 km/h (2 Bft) 0 min 0 min 7,1 km/h (2 Bft)
14.09.2010 02:02 19,8 C 15,2 C 0,0 UV-I 0,0 C 58 % 79 % 0 % 1021,7 hPa 0,0 l/m 6,0 km/h (2 Bft) 0 min 0 min 7,1 km/h (2 Bft)
14.09.2010 02:04 19,7 C 15,1 C 0,0 UV-I 0,0 C 59 % 78 % 0 % 1021,7 hPa 0,0 l/m 6,0 km/h (2 Bft) 0 min 0 min 4,8 km/h (1 Bft)
14.09.2010 02:06 19,7 C 15,2 C 0,0 UV-I 0,0 C 59 % 78 % 0 % 1021,4 hPa 0,0 l/m 6,0 km/h (2 Bft) 0 min 0 min 4,8 km/h (1 Bft)
14.09.2010 02:08 19,7 C 15,2 C 0,0 UV-I 0,0 C 59 % 79 % 0 % 1021,4 hPa 0,0 l/m 6,4 km/h (2 Bft) 0 min 0 min 6,8 km/h (2 Bft)
14.09.2010 02:12 19,7 C 15,2 C 0,0 UV-I 0,0 C 59 % 79 % 0 % 1021,4 hPa 0,0 l/m 4,8 km/h (1 Bft) 0 min 0 min 6,8 km/h (2 Bft)
14.09.2010 02:14 19,7 C 15,2 C 0,0 UV-I 0,0 C 59 % 79 % 0 % 1021,4 hPa 0,0 l/m 4,8 km/h (1 Bft) 0 min 0 min 3,5 km/h (1 Bft)
14.09.2010 02:16 19,7 C 15,2 C 0,0 UV-I 0,0 C 59 % 78 % 0 % 1021,4 hPa 0,0 l/m 4,4 km/h (1 Bft) 0 min 0 min 3,5 km/h (1 Bft)
14.09.2010 02:18 19,7 C 15,2 C 0,0 UV-I 0,0 C 59 % 78 % 0 % 1021,4 hPa 0,0 l/m 4,0 km/h (1 Bft) 0 min 0 min 4,8 km/h (1 Bft)
14.09.2010 02:20 19,7 C 15,3 C 0,0 UV-I 0,0 C 59 % 78 % 0 % 1021,4 hPa 0,0 l/m 3,6 km/h (1 Bft) 0 min 0 min 4,8 km/h (1 Bft)
14.09.2010 02:22 19,7 C 15,2 C 0,0 UV-I 0,0 C 59 % 78 % 0 % 1021,4 hPa 0,0 l/m 4,4 km/h (1 Bft) 0 min 0 min 4,2 km/h (1 Bft)
14.09.2010 02:24 19,7 C 15,2 C 0,0 UV-I 0,0 C 59 % 78 % 0 % 1021,4 hPa 0,0 l/m 4,0 km/h (1 Bft) 0 min 0 min 4,2 km/h (1 Bft)
14.09.2010 02:26 19,7 C 15,3 C 0,0 UV-I 0,0 C 59 % 78 % 0 % 1021,4 hPa 0,0 l/m 4,0 km/h (1 Bft) 0 min 0 min 7,7 km/h (2 Bft)
14.09.2010 02:28 19,7 C 15,3 C 0,0 UV-I 0,0 C 59 % 78 % 0 % 1021,4 hPa 0,0 l/m 4,8 km/h (1 Bft) 0 min 0 min 7,7 km/h (2 Bft)
14.09.2010 02:30 19,6 C 15,2 C 0,0 UV-I 0,0 C 59 % 78 % 0 % 1021,4 hPa 0,0 l/m 4,8 km/h (1 Bft) 0 min 0 min 4,8 km/h (1 Bft)
14.09.2010 02:32 19,7 C 15,2 C 0,0 UV-I 0,0 C 59 % 78 % 0 % 1021,4 hPa 0,0 l/m 5,2 km/h (1 Bft) 0 min 0 min 6,8 km/h (2 Bft)
14.09.2010 02:34 19,7 C 15,2 C 0,0 UV-I 0,0 C 59 % 78 % 0 % 1021,4 hPa 0,0 l/m 5,2 km/h (1 Bft) 0 min 0 min 6,8 km/h (2 Bft)
14.09.2010 02:36 19,7 C 15,3 C 0,0 UV-I 0,0 C 59 % 78 % 0 % 1021,4 hPa 0,0 l/m 4,8 km/h (1 Bft) 0 min 2 min 5,5 km/h (1 Bft)
14.09.2010 02:38 19,6 C 15,2 C 0,0 UV-I 0,0 C 59 % 78 % 0 % 1021,4 hPa 0,0 l/m 3,6 km/h (1 Bft) 0 min 0 min 3,2 km/h (1 Bft)
14.09.2010 02:40 19,6 C 15,2 C 0,0 UV-I 0,0 C 59 % 78 % 0 % 1021,4 hPa 0,0 l/m 3,2 km/h (1 Bft) 0 min 0 min 6,4 km/h (2 Bft)
14.09.2010 02:42 19,6 C 15,2 C 0,0 UV-I 0,0 C 59 % 78 % 0 % 1021,4 hPa 0,0 l/m 3,2 km/h (1 Bft) 0 min 0 min 10,6 km/h (2 Bft)
14.09.2010 02:44 19,6 C 15,2 C 0,0 UV-I 0,0 C 59 % 78 % 0 % 1021,4 hPa 0,0 l/m 2,8 km/h (1 Bft) 0 min 2 min 10,6 km/h (2 Bft)
14.09.2010 02:46 19,6 C 15,2 C 0,0 UV-I 0,0 C 59 % 78 % 0 % 1021,0 hPa 0,0 l/m 2,8 km/h (1 Bft) 0 min 2 min 5,1 km/h (1 Bft)
14.09.2010 02:50 19,6 C 15,2 C 0,0 UV-I 0,0 C 59 % 79 % 0 % 1021,0 hPa 0,0 l/m 3,2 km/h (1 Bft) 0 min 0 min 3,9 km/h (1 Bft)
14.09.2010 02:52 19,6 C 15,2 C 0,0 UV-I 0,0 C 59 % 79 % 0 % 1021,0 hPa 0,0 l/m 3,6 km/h (1 Bft) 0 min 0 min 4,2 km/h (1 Bft)
14.09.2010 02:54 19,6 C 15,2 C 0,0 UV-I 0,0 C 59 % 79 % 0 % 1021,0 hPa 0,0 l/m 2,8 km/h (1 Bft) 0 min 0 min 5,8 km/h (2 Bft)
14.09.2010 02:56 19,6 C 15,2 C 0,0 UV-I 0,0 C 59 % 79 % 0 % 1021,0 hPa 0,0 l/m 3,2 km/h (1 Bft) 0 min 0 min 5,8 km/h (2 Bft)
14.09.2010 02:58 19,6 C 15,2 C 0,1 UV-I 0,0 C 59 % 79 % 0 % 1021,0 hPa 0,0 l/m 3,2 km/h (1 Bft) 0 min 0 min 3,9 km/h (1 Bft)
14.09.2010 03:00 19,6 C 15,2 C 0,1 UV-I 0,0 C 59 % 79 % 0 % 1021,0 hPa 0,0 l/m 2,8 km/h (1 Bft) 0 min 2 min 3,9 km/h (1 Bft)
14.09.2010 03:04 19,6 C 15,3 C 0,1 UV-I 0,0 C 59 % 79 % 0 % 1021,0 hPa 0,0 l/m 3,2 km/h (1 Bft) 0 min 2 min 8,0 km/h (2 Bft)
14.09.2010 03:06 19,6 C 15,2 C 0,1 UV-I 0,0 C 59 % 80 % 0 % 1020,7 hPa 0,0 l/m 3,6 km/h (1 Bft) 0 min 0 min 6,4 km/h (2 Bft)
14.09.2010 03:08 19,6 C 15,2 C 0,1 UV-I 0,0 C 60 % 80 % 0 % 1020,7 hPa 0,0 l/m 3,6 km/h (1 Bft) 0 min 0 min 6,4 km/h (2 Bft)
14.09.2010 03:10 19,6 C 15,3 C 0,1 UV-I 0,0 C 60 % 80 % 0 % 1020,7 hPa 0,0 l/m 4,0 km/h (1 Bft) 0 min 0 min 3,5 km/h (1 Bft)
14.09.2010 03:12 19,6 C 15,2 C 0,1 UV-I 0,0 C 60 % 80 % 0 % 1020,7 hPa 0,0 l/m 4,0 km/h (1 Bft) 0 min 0 min 4,8 km/h (1 Bft)
14.09.2010 03:14 19,6 C 15,3 C 0,0 UV-I 0,0 C 60 % 80 % 0 % 1020,7 hPa 0,0 l/m 4,0 km/h (1 Bft) 0 min 0 min 5,5 km/h (1 Bft)
14.09.2010 03:16 19,6 C 15,3 C 0,0 UV-I 0,0 C 60 % 80 % 0 % 1020,7 hPa 0,0 l/m 4,0 km/h (1 Bft) 0 min 0 min 5,8 km/h (2 Bft)
14.09.2010 03:18 19,6 C 15,3 C 0,0 UV-I 0,0 C 60 % 80 % 0 % 1020,7 hPa 0,0 l/m 3,6 km/h (1 Bft) 0 min 0 min 5,8 km/h (2 Bft)
14.09.2010 03:20 19,6 C 15,3 C 0,0 UV-I 0,0 C 60 % 80 % 0 % 1020,7 hPa 0,0 l/m 4,0 km/h (1 Bft) 0 min 0 min 8,4 km/h (2 Bft)
14.09.2010 03:24 19,6 C 15,3 C 0,1 UV-I 0,0 C 60 % 80 % 0 % 1020,7 hPa 0,0 l/m 4,8 km/h (1 Bft) 0 min 2 min 9,0 km/h (2 Bft)
14.09.2010 03:26 19,6 C 15,2 C 0,1 UV-I 0,0 C 60 % 80 % 0 % 1020,6 hPa 0,0 l/m 4,8 km/h (1 Bft) 0 min 2 min 6,8 km/h (2 Bft)
14.09.2010 03:28 19,6 C 15,3 C 0,0 UV-I 0,0 C 60 % 80 % 0 % 1020,6 hPa 0,0 l/m 4,4 km/h (1 Bft) 0 min 2 min 6,8 km/h (2 Bft)
14.09.2010 03:30 19,6 C 15,3 C 0,0 UV-I 0,0 C 60 % 80 % 0 % 1020,6 hPa 0,0 l/m 5,6 km/h (1 Bft) 0 min 2 min 10,3 km/h (2 Bft)
14.09.2010 03:32 19,6 C 15,2 C 0,0 UV-I 0,0 C 60 % 80 % 0 % 1020,6 hPa 0,0 l/m 5,2 km/h (1 Bft) 0 min 2 min 10,3 km/h (2 Bft)
14.09.2010 03:34 19,6 C 15,2 C 0,1 UV-I 0,0 C 60 % 81 % 0 % 1020,6 hPa 0,0 l/m 5,6 km/h (1 Bft) 0 min 2 min 6,4 km/h (2 Bft)
14.09.2010 03:36 19,6 C 15,1 C 0,1 UV-I 0,0 C 60 % 81 % 0 % 1020,6 hPa 0,0 l/m 6,0 km/h (2 Bft) 0 min 2 min 6,4 km/h (2 Bft)
14.09.2010 03:38 19,6 C 15,1 C 0,0 UV-I 0,0 C 60 % 81 % 0 % 1020,6 hPa 0,0 l/m 5,2 km/h (1 Bft) 0 min 2 min 4,2 km/h (1 Bft)
14.09.2010 03:40 19,6 C 15,1 C 0,0 UV-I 0,0 C 61 % 81 % 0 % 1020,6 hPa 0,0 l/m 5,6 km/h (1 Bft) 0 min 2 min 4,5 km/h (1 Bft)
14.09.2010 03:42 19,6 C 15,1 C 0,0 UV-I 0,0 C 61 % 81 % 0 % 1020,6 hPa 0,0 l/m 4,8 km/h (1 Bft) 0 min 2 min 4,5 km/h (1 Bft)
14.09.2010 03:44 19,6 C 15,1 C 0,0 UV-I 0,0 C 61 % 82 % 0 % 1020,6 hPa 0,0 l/m 4,8 km/h (1 Bft) 0 min 2 min 7,7 km/h (2 Bft)
14.09.2010 03:46 19,6 C 15,1 C 0,0 UV-I 0,0 C 61 % 82 % 0 % 1020,4 hPa 0,0 l/m 4,8 km/h (1 Bft) 0 min 0 min 7,7 km/h (2 Bft)
14.09.2010 03:48 19,6 C 15,0 C 0,0 UV-I 0,0 C 61 % 82 % 0 % 1020,4 hPa 0,0 l/m 4,0 km/h (1 Bft) 0 min 0 min 6,4 km/h (2 Bft)
14.09.2010 03:50 19,6 C 14,9 C 0,0 UV-I 0,0 C 61 % 82 % 0 % 1020,4 hPa 0,0 l/m 4,4 km/h (1 Bft) 0 min 0 min 4,5 km/h (1 Bft)
14.09.2010 03:52 19,6 C 14,9 C 0,0 UV-I 0,0 C 61 % 82 % 0 % 1020,4 hPa 0,0 l/m 4,8 km/h (1 Bft) 0 min 0 min 7,1 km/h (2 Bft)
14.09.2010 03:54 19,6 C 14,9 C 0,0 UV-I 0,0 C 61 % 82 % 0 % 1020,4 hPa 0,0 l/m 4,8 km/h (1 Bft) 0 min 2 min 7,1 km/h (2 Bft)
14.09.2010 03:56 19,6 C 14,9 C 0,0 UV-I 0,0 C 61 % 82 % 0 % 1020,4 hPa 0,0 l/m 4,0 km/h (1 Bft) 0 min 0 min 5,5 km/h (1 Bft)
14.09.2010 03:58 19,6 C 14,9 C 0,0 UV-I 0,0 C 61 % 82 % 0 % 1020,4 hPa 0,0 l/m 4,0 km/h (1 Bft) 0 min 0 min 6,4 km/h (2 Bft)
14.09.2010 04:02 19,6 C 14,9 C 0,0 UV-I 0,0 C 61 % 82 % 0 % 1020,4 hPa 0,0 l/m 4,0 km/h (1 Bft) 0 min 0 min 10,6 km/h (2 Bft)
14.09.2010 04:04 19,5 C 14,9 C 0,0 UV-I 0,0 C 61 % 82 % 0 % 1020,4 hPa 0,0 l/m 4,8 km/h (1 Bft) 0 min 0 min 10,6 km/h (2 Bft)
14.09.2010 04:06 19,6 C 14,9 C 0,0 UV-I 0,0 C 61 % 82 % 0 % 1020,2 hPa 0,0 l/m 5,2 km/h (1 Bft) 0 min 0 min 8,7 km/h (2 Bft)
14.09.2010 04:08 19,6 C 14,9 C 0,0 UV-I 0,0 C 61 % 82 % 0 % 1020,2 hPa 0,0 l/m 5,6 km/h (1 Bft) 0 min 0 min 8,7 km/h (2 Bft)
14.09.2010 04:10 19,6 C 14,9 C 0,0 UV-I 0,0 C 61 % 82 % 0 % 1020,2 hPa 0,0 l/m 5,6 km/h (1 Bft) 0 min 0 min 8,0 km/h (2 Bft)
14.09.2010 04:12 19,5 C 14,9 C 0,0 UV-I 0,0 C 61 % 82 % 0 % 1020,2 hPa 0,0 l/m 5,6 km/h (1 Bft) 0 min 0 min 8,0 km/h (2 Bft)
14.09.2010 04:14 19,6 C 15,0 C 0,1 UV-I 0,0 C 61 % 82 % 0 % 1020,2 hPa 0,0 l/m 4,4 km/h (1 Bft) 0 min 0 min 4,5 km/h (1 Bft)
14.09.2010 04:16 19,5 C 15,0 C 0,1 UV-I 0,0 C 61 % 82 % 0 % 1020,2 hPa 0,0 l/m 4,4 km/h (1 Bft) 0 min 0 min 4,8 km/h (1 Bft)
14.09.2010 04:18 19,5 C 15,1 C 0,1 UV-I 0,0 C 61 % 82 % 0 % 1020,2 hPa 0,0 l/m 3,6 km/h (1 Bft) 0 min 0 min 6,8 km/h (2 Bft)
14.09.2010 04:20 19,5 C 15,0 C 0,1 UV-I 0,0 C 61 % 82 % 0 % 1020,2 hPa 0,0 l/m 4,4 km/h (1 Bft) 0 min 0 min 6,8 km/h (2 Bft)
14.09.2010 04:22 19,5 C 15,1 C 0,1 UV-I 0,0 C 61 % 82 % 0 % 1020,2 hPa 0,0 l/m 4,4 km/h (1 Bft) 0 min 0 min 5,8 km/h (2 Bft)
14.09.2010 04:26 19,5 C 15,1 C 0,1 UV-I 0,0 C 61 % 82 % 0 % 1020,0 hPa 0,0 l/m 4,0 km/h (1 Bft) 0 min 0 min 5,8 km/h (2 Bft)
14.09.2010 04:28 19,5 C 15,1 C 0,1 UV-I 0,0 C 61 % 81 % 0 % 1020,0 hPa 0,0 l/m 4,8 km/h (1 Bft) 0 min 0 min 5,8 km/h (2 Bft)
14.09.2010 04:30 19,5 C 15,2 C 0,1 UV-I 0,0 C 61 % 81 % 0 % 1020,0 hPa 0,0 l/m 4,4 km/h (1 Bft) 0 min 0 min 4,5 km/h (1 Bft)
14.09.2010 04:32 19,5 C 15,2 C 0,1 UV-I 0,0 C 61 % 81 % 0 % 1020,0 hPa 0,0 l/m 4,0 km/h (1 Bft) 0 min 0 min 7,4 km/h (2 Bft)
14.09.2010 04:34 19,5 C 15,3 C 0,1 UV-I 0,0 C 61 % 81 % 0 % 1020,0 hPa 0,0 l/m 4,8 km/h (1 Bft) 0 min 0 min 10,9 km/h (2 Bft)
14.09.2010 04:36 19,5 C 15,3 C 0,1 UV-I 0,0 C 61 % 81 % 0 % 1020,0 hPa 0,0 l/m 6,0 km/h (2 Bft) 0 min 0 min 10,9 km/h (2 Bft)
14.09.2010 04:38 19,5 C 15,2 C 0,1 UV-I 0,0 C 61 % 81 % 0 % 1020,0 hPa 0,0 l/m 6,4 km/h (2 Bft) 0 min 0 min 8,7 km/h (2 Bft)
14.09.2010 04:40 19,5 C 15,2 C 0,1 UV-I 0,0 C 61 % 81 % 0 % 1020,0 hPa 0,0 l/m 6,4 km/h (2 Bft) 0 min 0 min 6,4 km/h (2 Bft)
14.09.2010 04:44 19,5 C 15,2 C 0,0 UV-I 0,0 C 61 % 81 % 0 % 1020,0 hPa 0,0 l/m 7,2 km/h (2 Bft) 0 min 0 min 8,4 km/h (2 Bft)
14.09.2010 04:46 19,5 C 15,3 C 0,0 UV-I 0,0 C 61 % 81 % 0 % 1019,4 hPa 0,0 l/m 6,8 km/h (2 Bft) 0 min 0 min 8,4 km/h (2 Bft)
14.09.2010 04:48 19,5 C 15,3 C 0,0 UV-I 0,0 C 61 % 81 % 0 % 1019,4 hPa 0,0 l/m 6,0 km/h (2 Bft) 0 min 0 min 9,7 km/h (2 Bft)
14.09.2010 04:50 19,5 C 15,3 C 0,0 UV-I 0,0 C 61 % 81 % 0 % 1019,4 hPa 0,0 l/m 6,8 km/h (2 Bft) 0 min 0 min 9,7 km/h (2 Bft)
14.09.2010 04:52 19,5 C 15,3 C 0,0 UV-I 0,0 C 61 % 81 % 0 % 1019,4 hPa 0,0 l/m 6,4 km/h (2 Bft) 0 min 0 min 9,7 km/h (2 Bft)
14.09.2010 04:54 19,5 C 15,3 C 0,0 UV-I 0,0 C 61 % 81 % 0 % 1019,4 hPa 0,0 l/m 7,6 km/h (2 Bft) 0 min 0 min 8,4 km/h (2 Bft)
14.09.2010 05:00 19,4 C 15,5 C 0,0 UV-I 0,0 C 61 % 81 % 0 % 1019,4 hPa 0,0 l/m 7,6 km/h (2 Bft) 0 min 0 min 10,6 km/h (2 Bft)
14.09.2010 05:02 19,5 C 15,5 C 0,0 UV-I 0,0 C 61 % 81 % 0 % 1019,4 hPa 0,0 l/m 8,0 km/h (2 Bft) 0 min 0 min 6,1 km/h (2 Bft)
14.09.2010 05:04 19,4 C 15,5 C 0,0 UV-I 0,0 C 62 % 81 % 0 % 1019,4 hPa 0,0 l/m 6,8 km/h (2 Bft) 0 min 0 min 7,1 km/h (2 Bft)
14.09.2010 05:06 19,5 C 15,5 C 0,0 UV-I 0,0 C 62 % 81 % 0 % 1019,3 hPa 0,0 l/m 8,0 km/h (2 Bft) 0 min 0 min 7,1 km/h (2 Bft)
14.09.2010 05:08 19,5 C 15,4 C 0,0 UV-I 0,0 C 62 % 81 % 0 % 1019,3 hPa 0,0 l/m 8,8 km/h (2 Bft) 0 min 0 min 13,2 km/h (3 Bft)
14.09.2010 05:10 19,4 C 15,5 C 0,0 UV-I 0,0 C 62 % 81 % 0 % 1019,3 hPa 0,0 l/m 8,4 km/h (2 Bft) 0 min 0 min 13,2 km/h (3 Bft)
14.09.2010 05:12 19,4 C 15,5 C 0,0 UV-I 0,0 C 62 % 81 % 0 % 1019,3 hPa 0,0 l/m 7,6 km/h (2 Bft) 0 min 0 min 7,4 km/h (2 Bft)
14.09.2010 05:16 19,4 C 15,5 C 0,0 UV-I 0,0 C 62 % 81 % 0 % 1019,3 hPa 0,0 l/m 7,6 km/h (2 Bft) 0 min 0 min 24,5 km/h (4 Bft)
14.09.2010 05:18 19,4 C 15,5 C 0,0 UV-I 0,0 C 62 % 81 % 0 % 1019,3 hPa 0,0 l/m 7,2 km/h (2 Bft) 0 min 0 min 9,7 km/h (2 Bft)
14.09.2010 05:20 19,4 C 15,5 C 0,0 UV-I 0,0 C 62 % 81 % 0 % 1019,3 hPa 0,0 l/m 7,6 km/h (2 Bft) 0 min 0 min 9,7 km/h (2 Bft)
14.09.2010 05:22 19,4 C 15,5 C 0,0 UV-I 0,0 C 62 % 81 % 0 % 1019,3 hPa 0,0 l/m 8,0 km/h (2 Bft) 0 min 0 min 7,7 km/h (2 Bft)
14.09.2010 05:26 19,4 C 15,6 C 0,0 UV-I 0,0 C 62 % 81 % 0 % 1019,3 hPa 0,0 l/m 8,0 km/h (2 Bft) 0 min 0 min 25,1 km/h (4 Bft)
14.09.2010 05:28 19,4 C 15,6 C 0,0 UV-I 0,0 C 62 % 81 % 0 % 1019,3 hPa 0,0 l/m 8,0 km/h (2 Bft) 0 min 0 min 10,3 km/h (2 Bft)
14.09.2010 05:30 19,4 C 15,6 C 0,0 UV-I 0,0 C 62 % 81 % 0 % 1019,3 hPa 0,0 l/m 6,4 km/h (2 Bft) 0 min 0 min 7,4 km/h (2 Bft)
14.09.2010 05:32 19,4 C 15,6 C 0,0 UV-I 0,0 C 62 % 81 % 0 % 1019,3 hPa 0,0 l/m 6,4 km/h (2 Bft) 0 min 0 min 6,4 km/h (2 Bft)
14.09.2010 05:34 19,4 C 15,6 C 0,0 UV-I 0,0 C 62 % 81 % 0 % 1019,3 hPa 0,0 l/m 6,0 km/h (2 Bft) 0 min 0 min 5,8 km/h (2 Bft)
14.09.2010 05:36 19,4 C 15,6 C 0,0 UV-I 0,0 C 62 % 81 % 0 % 1019,3 hPa 0,0 l/m 6,0 km/h (2 Bft) 0 min 0 min 8,0 km/h (2 Bft)
14.09.2010 05:38 19,4 C 15,6 C 0,0 UV-I 0,0 C 62 % 81 % 0 % 1019,3 hPa 0,0 l/m 5,6 km/h (1 Bft) 0 min 0 min 6,4 km/h (2 Bft)
14.09.2010 05:40 19,4 C 15,6 C 0,0 UV-I 0,0 C 62 % 81 % 0 % 1019,3 hPa 0,0 l/m 6,0 km/h (2 Bft) 0 min 0 min 6,4 km/h (2 Bft)
14.09.2010 05:42 19,4 C 15,6 C 0,0 UV-I 0,0 C 62 % 81 % 0 % 1019,3 hPa 0,0 l/m 6,4 km/h (2 Bft) 0 min 0 min 6,1 km/h (2 Bft)
14.09.2010 05:44 19,4 C 15,6 C 0,0 UV-I 0,0 C 62 % 81 % 0 % 1019,3 hPa 0,0 l/m 6,4 km/h (2 Bft) 0 min 0 min 9,7 km/h (2 Bft)
14.09.2010 05:46 19,4 C 15,6 C 0,0 UV-I 0,0 C 62 % 81 % 0 % 1018,9 hPa 0,0 l/m 6,8 km/h (2 Bft) 0 min 0 min 9,7 km/h (2 Bft)
14.09.2010 05:50 19,4 C 15,7 C 0,0 UV-I 0,0 C 62 % 81 % 0 % 1018,9 hPa 0,0 l/m 6,4 km/h (2 Bft) 0 min 0 min 7,7 km/h (2 Bft)
14.09.2010 05:52 19,4 C 15,6 C 0,0 UV-I 0,0 C 62 % 81 % 0 % 1018,9 hPa 0,0 l/m 6,0 km/h (2 Bft) 0 min 0 min 7,1 km/h (2 Bft)
14.09.2010 05:54 19,4 C 15,6 C 0,0 UV-I 0,0 C 62 % 82 % 0 % 1018,9 hPa 0,0 l/m 6,0 km/h (2 Bft) 0 min 0 min 14,2 km/h (3 Bft)
14.09.2010 05:58 19,4 C 15,6 C 0,0 UV-I 0,0 C 62 % 82 % 0 % 1018,9 hPa 0,0 l/m 7,6 km/h (2 Bft) 0 min 0 min 14,2 km/h (3 Bft)
14.09.2010 06:00 19,4 C 15,6 C 0,0 UV-I 0,0 C 62 % 82 % 0 % 1018,9 hPa 0,0 l/m 7,6 km/h (2 Bft) 0 min 0 min 10,0 km/h (2 Bft)
14.09.2010 06:02 19,4 C 15,7 C 0,0 UV-I 0,0 C 62 % 82 % 0 % 1018,9 hPa 0,0 l/m 7,6 km/h (2 Bft) 0 min 0 min 6,8 km/h (2 Bft)
14.09.2010 06:04 19,4 C 15,6 C 0,0 UV-I 0,0 C 62 % 82 % 0 % 1018,9 hPa 0,0 l/m 8,4 km/h (2 Bft) 0 min 0 min 5,8 km/h (2 Bft)
14.09.2010 06:06 19,4 C 15,6 C 0,0 UV-I 0,0 C 62 % 82 % 0 % 1018,8 hPa 0,0 l/m 7,6 km/h (2 Bft) 0 min 0 min 16,7 km/h (3 Bft)
14.09.2010 06:08 19,4 C 15,6 C 0,0 UV-I 0,0 C 62 % 82 % 0 % 1018,8 hPa 0,0 l/m 7,6 km/h (2 Bft) 0 min 0 min 16,7 km/h (3 Bft)
14.09.2010 06:10 19,4 C 15,6 C 0,0 UV-I 0,0 C 62 % 82 % 0 % 1018,8 hPa 0,0 l/m 7,2 km/h (2 Bft) 0 min 0 min 10,6 km/h (2 Bft)
14.09.2010 06:12 19,4 C 15,6 C 0,0 UV-I 0,0 C 62 % 82 % 0 % 1018,8 hPa 0,0 l/m 7,6 km/h (2 Bft) 0 min 0 min 6,4 km/h (2 Bft)
14.09.2010 06:14 19,4 C 15,6 C 0,0 UV-I 0,0 C 62 % 82 % 0 % 1018,8 hPa 0,0 l/m 6,8 km/h (2 Bft) 0 min 0 min 6,4 km/h (2 Bft)
14.09.2010 06:16 19,4 C 15,6 C 0,0 UV-I 0,0 C 62 % 82 % 0 % 1018,8 hPa 0,0 l/m 7,6 km/h (2 Bft) 0 min 0 min 7,1 km/h (2 Bft)
14.09.2010 06:18 19,4 C 15,6 C 0,0 UV-I 0,0 C 62 % 82 % 0 % 1018,8 hPa 0,0 l/m 6,8 km/h (2 Bft) 0 min 0 min 7,7 km/h (2 Bft)
14.09.2010 06:20 19,4 C 15,6 C 0,0 UV-I 0,0 C 63 % 82 % 0 % 1018,8 hPa 0,0 l/m 6,8 km/h (2 Bft) 0 min 0 min 15,8 km/h (3 Bft)
14.09.2010 06:22 19,4 C 15,6 C 0,0 UV-I 0,0 C 62 % 83 % 0 % 1018,8 hPa 0,0 l/m 6,4 km/h (2 Bft) 0 min 0 min 15,8 km/h (3 Bft)
14.09.2010 06:24 19,4 C 15,6 C 0,0 UV-I 0,0 C 63 % 83 % 0 % 1018,8 hPa 0,0 l/m 6,4 km/h (2 Bft) 0 min 0 min 7,4 km/h (2 Bft)
14.09.2010 06:26 19,4 C 15,6 C 0,0 UV-I 0,0 C 63 % 83 % 0 % 1018,8 hPa 0,0 l/m 6,0 km/h (2 Bft) 0 min 0 min 7,4 km/h (2 Bft)
14.09.2010 06:28 19,4 C 15,5 C 0,0 UV-I 0,0 C 63 % 83 % 0 % 1018,8 hPa 0,0 l/m 6,4 km/h (2 Bft) 0 min 0 min 15,1 km/h (3 Bft)
14.09.2010 06:32 19,4 C 15,5 C 0,0 UV-I 0,0 C 63 % 83 % 0 % 1018,8 hPa 0,0 l/m 6,4 km/h (2 Bft) 0 min 0 min 15,1 km/h (3 Bft)
14.09.2010 06:34 19,4 C 15,5 C 0,0 UV-I 0,0 C 63 % 83 % 0 % 1018,8 hPa 0,0 l/m 7,6 km/h (2 Bft) 0 min 0 min 14,2 km/h (3 Bft)
14.09.2010 06:36 19,4 C 15,5 C 0,0 UV-I 0,0 C 63 % 83 % 0 % 1018,8 hPa 0,0 l/m 8,0 km/h (2 Bft) 0 min 0 min 9,7 km/h (2 Bft)
14.09.2010 06:38 19,4 C 15,5 C 0,0 UV-I 0,0 C 63 % 83 % 0 % 1018,8 hPa 0,0 l/m 8,4 km/h (2 Bft) 0 min 0 min 10,3 km/h (2 Bft)
14.09.2010 06:40 19,4 C 15,5 C 0,0 UV-I 0,0 C 63 % 83 % 0 % 1018,8 hPa 0,0 l/m 8,4 km/h (2 Bft) 0 min 0 min 10,3 km/h (2 Bft)
14.09.2010 06:42 19,4 C 15,5 C 0,0 UV-I 0,0 C 63 % 83 % 0 % 1018,8 hPa 0,0 l/m 8,8 km/h (2 Bft) 0 min 0 min 9,3 km/h (2 Bft)
14.09.2010 06:44 19,4 C 15,5 C 0,0 UV-I 0,0 C 63 % 83 % 0 % 1018,8 hPa 0,0 l/m 8,4 km/h (2 Bft) 0 min 0 min 9,3 km/h (2 Bft)
14.09.2010 06:46 19,4 C 15,5 C 0,0 UV-I 0,0 C 63 % 84 % 0 % 1018,6 hPa 0,0 l/m 8,4 km/h (2 Bft) 0 min 0 min 4,5 km/h (1 Bft)
14.09.2010 06:48 19,2 C 15,5 C 0,1 UV-I 0,0 C 63 % 84 % 0 % 1018,6 hPa 0,0 l/m 8,8 km/h (2 Bft) 0 min 0 min 6,1 km/h (2 Bft)
14.09.2010 06:50 19,2 C 15,5 C 0,1 UV-I 0,0 C 63 % 84 % 0 % 1018,6 hPa 0,0 l/m 7,6 km/h (2 Bft) 0 min 0 min 6,8 km/h (2 Bft)
14.09.2010 06:54 19,4 C 15,5 C 0,0 UV-I 0,0 C 63 % 84 % 0 % 1018,6 hPa 0,0 l/m 7,2 km/h (2 Bft) 0 min 0 min 13,5 km/h (3 Bft)
14.09.2010 06:56 19,2 C 15,5 C 0,0 UV-I 0,0 C 64 % 84 % 0 % 1018,6 hPa 0,0 l/m 7,6 km/h (2 Bft) 0 min 0 min 12,9 km/h (3 Bft)
14.09.2010 06:58 19,2 C 15,4 C 0,0 UV-I 0,0 C 64 % 84 % 0 % 1018,6 hPa 0,0 l/m 7,6 km/h (2 Bft) 0 min 0 min 12,9 km/h (3 Bft)
14.09.2010 07:00 19,2 C 15,4 C 0,0 UV-I 0,0 C 64 % 84 % 0 % 1018,6 hPa 0,0 l/m 8,4 km/h (2 Bft) 0 min 0 min 8,0 km/h (2 Bft)
14.09.2010 07:02 19,2 C 15,5 C 0,2 UV-I 0,0 C 64 % 84 % 0 % 1018,6 hPa 0,0 l/m 8,4 km/h (2 Bft) 0 min 0 min 7,1 km/h (2 Bft)
14.09.2010 07:04 19,2 C 15,4 C 0,2 UV-I 0,0 C 64 % 84 % 0 % 1018,6 hPa 0,0 l/m 8,8 km/h (2 Bft) 0 min 0 min 8,4 km/h (2 Bft)
14.09.2010 07:06 19,2 C 15,5 C 0,2 UV-I 0,0 C 64 % 84 % 0 % 1018,5 hPa 0,0 l/m 8,0 km/h (2 Bft) 0 min 0 min 8,4 km/h (2 Bft)
14.09.2010 07:08 19,2 C 15,5 C 0,2 UV-I 0,0 C 64 % 84 % 0 % 1018,5 hPa 0,0 l/m 8,0 km/h (2 Bft) 0 min 0 min 13,8 km/h (3 Bft)
14.09.2010 07:10 19,2 C 15,5 C 0,2 UV-I 0,0 C 64 % 84 % 0 % 1018,5 hPa 0,0 l/m 8,4 km/h (2 Bft) 0 min 0 min 8,0 km/h (2 Bft)
14.09.2010 07:12 19,2 C 15,5 C 0,2 UV-I 0,0 C 64 % 85 % 0 % 1018,5 hPa 0,0 l/m 8,0 km/h (2 Bft) 0 min 0 min 8,0 km/h (2 Bft)
14.09.2010 07:14 19,2 C 15,5 C 0,2 UV-I 0,0 C 64 % 85 % 0 % 1018,5 hPa 0,0 l/m 8,0 km/h (2 Bft) 0 min 0 min 8,0 km/h (2 Bft)
14.09.2010 07:16 19,3 C 15,5 C 0,2 UV-I 0,0 C 64 % 85 % 0 % 1018,5 hPa 0,0 l/m 8,8 km/h (2 Bft) 0 min 0 min 8,4 km/h (2 Bft)
14.09.2010 07:20 19,3 C 15,4 C 0,2 UV-I 0,0 C 64 % 85 % 0 % 1018,5 hPa 0,0 l/m 8,0 km/h (2 Bft) 0 min 0 min 8,4 km/h (2 Bft)
14.09.2010 07:22 19,3 C 15,5 C 0,2 UV-I 0,0 C 64 % 85 % 0 % 1018,5 hPa 0,0 l/m 8,0 km/h (2 Bft) 0 min 0 min 6,8 km/h (2 Bft)
14.09.2010 07:24 19,3 C 15,5 C 0,2 UV-I 0,0 C 64 % 85 % 0 % 1018,5 hPa 0,0 l/m 7,6 km/h (2 Bft) 0 min 0 min 6,8 km/h (2 Bft)
14.09.2010 07:30 19,3 C 15,4 C 0,2 UV-I 0,0 C 65 % 85 % 0 % 1018,4 hPa 0,0 l/m 6,8 km/h (2 Bft) 0 min 0 min 7,4 km/h (2 Bft)
14.09.2010 07:32 19,3 C 15,5 C 0,2 UV-I 0,0 C 65 % 85 % 0 % 1018,4 hPa 0,0 l/m 7,2 km/h (2 Bft) 0 min 0 min 22,9 km/h (4 Bft)
14.09.2010 07:34 19,2 C 15,5 C 0,2 UV-I 0,0 C 65 % 85 % 0 % 1018,4 hPa 0,0 l/m 7,2 km/h (2 Bft) 0 min 0 min 22,9 km/h (4 Bft)
14.09.2010 07:36 19,2 C 15,5 C 0,2 UV-I 0,0 C 65 % 85 % 0 % 1018,4 hPa 0,0 l/m 7,6 km/h (2 Bft) 0 min 0 min 7,7 km/h (2 Bft)
14.09.2010 07:40 19,2 C 15,4 C 0,2 UV-I 0,0 C 65 % 85 % 0 % 1018,4 hPa 0,0 l/m 8,0 km/h (2 Bft) 0 min 0 min 10,9 km/h (2 Bft)
14.09.2010 07:42 19,2 C 15,4 C 0,2 UV-I 0,0 C 65 % 85 % 0 % 1018,4 hPa 0,0 l/m 9,2 km/h (2 Bft) 0 min 0 min 12,9 km/h (3 Bft)
14.09.2010 07:44 19,2 C 15,4 C 0,2 UV-I 0,0 C 65 % 85 % 0 % 1018,4 hPa 0,0 l/m 8,4 km/h (2 Bft) 0 min 0 min 12,9 km/h (3 Bft)
14.09.2010 07:46 19,2 C 15,5 C 0,2 UV-I 0,0 C 65 % 85 % 0 % 1018,6 hPa 0,0 l/m 8,0 km/h (2 Bft) 0 min 0 min 9,7 km/h (2 Bft)
14.09.2010 07:48 19,2 C 15,5 C 0,2 UV-I 0,0 C 65 % 85 % 0 % 1018,6 hPa 0,0 l/m 8,4 km/h (2 Bft) 0 min 0 min 9,3 km/h (2 Bft)
14.09.2010 07:50 19,2 C 15,5 C 0,2 UV-I 0,0 C 65 % 85 % 0 % 1018,6 hPa 0,0 l/m 8,4 km/h (2 Bft) 0 min 0 min 9,3 km/h (2 Bft)
14.09.2010 07:52 19,2 C 15,5 C 0,2 UV-I 0,0 C 65 % 85 % 0 % 1018,6 hPa 0,0 l/m 8,4 km/h (2 Bft) 0 min 0 min 17,7 km/h (3 Bft)
14.09.2010 07:56 19,2 C 15,5 C 0,3 UV-I 0,0 C 65 % 85 % 0 % 1018,6 hPa 0,0 l/m 8,4 km/h (2 Bft) 0 min 0 min 6,8 km/h (2 Bft)
14.09.2010 07:58 19,2 C 15,5 C 0,3 UV-I 0,0 C 65 % 85 % 0 % 1018,6 hPa 0,0 l/m 8,8 km/h (2 Bft) 0 min 0 min 9,3 km/h (2 Bft)
14.09.2010 08:00 19,2 C 15,5 C 0,3 UV-I 0,0 C 65 % 85 % 0 % 1018,6 hPa 0,0 l/m 7,6 km/h (2 Bft) 0 min 2 min 9,3 km/h (2 Bft)
14.09.2010 08:02 19,2 C 15,5 C 0,3 UV-I 0,0 C 65 % 85 % 0 % 1018,6 hPa 0,0 l/m 8,4 km/h (2 Bft) 0 min 0 min 6,8 km/h (2 Bft)
14.09.2010 08:04 19,2 C 15,6 C 0,3 UV-I 0,0 C 65 % 85 % 0 % 1018,6 hPa 0,0 l/m 8,0 km/h (2 Bft) 0 min 0 min 7,7 km/h (2 Bft)
14.09.2010 08:08 19,2 C 15,6 C 0,3 UV-I 0,0 C 65 % 85 % 0 % 1018,0 hPa 0,0 l/m 8,0 km/h (2 Bft) 0 min 0 min 11,3 km/h (2 Bft)
14.09.2010 08:12 19,2 C 15,6 C 0,3 UV-I 0,0 C 65 % 85 % 0 % 1018,0 hPa 0,0 l/m 9,6 km/h (2 Bft) 0 min 0 min 12,6 km/h (3 Bft)
14.09.2010 08:14 19,2 C 15,7 C 0,3 UV-I 0,0 C 65 % 85 % 0 % 1018,0 hPa 0,0 l/m 9,6 km/h (2 Bft) 0 min 0 min 14,5 km/h (3 Bft)
14.09.2010 08:16 19,2 C 15,6 C 0,3 UV-I 0,0 C 65 % 85 % 0 % 1018,0 hPa 0,0 l/m 10,4 km/h (2 Bft) 0 min 0 min 21,9 km/h (4 Bft)
14.09.2010 08:18 19,2 C 15,7 C 0,4 UV-I 0,0 C 65 % 85 % 0 % 1018,0 hPa 0,0 l/m 10,0 km/h (2 Bft) 0 min 0 min 21,9 km/h (4 Bft)
14.09.2010 08:20 19,2 C 15,7 C 0,4 UV-I 0,0 C 65 % 85 % 0 % 1018,0 hPa 0,0 l/m 10,0 km/h (2 Bft) 0 min 0 min 7,1 km/h (2 Bft)
14.09.2010 08:22 19,2 C 15,7 C 0,4 UV-I 0,0 C 65 % 85 % 0 % 1018,0 hPa 0,0 l/m 10,4 km/h (2 Bft) 0 min 0 min 10,0 km/h (2 Bft)
14.09.2010 08:24 19,2 C 15,7 C 0,6 UV-I 0,0 C 65 % 85 % 0 % 1018,0 hPa 0,0 l/m 10,4 km/h (2 Bft) 0 min 0 min 17,4 km/h (3 Bft)
14.09.2010 08:30 19,2 C 15,9 C 0,6 UV-I 0,0 C 66 % 85 % 0 % 1018,1 hPa 0,0 l/m 10,8 km/h (2 Bft) 0 min 0 min 17,4 km/h (3 Bft)
14.09.2010 08:32 19,2 C 15,8 C 0,6 UV-I 0,0 C 66 % 85 % 0 % 1018,1 hPa 0,0 l/m 10,8 km/h (2 Bft) 0 min 0 min 14,2 km/h (3 Bft)
14.09.2010 08:34 19,2 C 15,8 C 0,7 UV-I 0,0 C 66 % 85 % 0 % 1018,1 hPa 0,0 l/m 11,2 km/h (2 Bft) 0 min 0 min 26,1 km/h (4 Bft)
14.09.2010 08:36 19,2 C 15,8 C 0,7 UV-I 0,0 C 66 % 84 % 0 % 1018,1 hPa 0,0 l/m 11,2 km/h (2 Bft) 0 min 0 min 5,1 km/h (1 Bft)
14.09.2010 08:38 19,2 C 15,9 C 0,6 UV-I 0,0 C 66 % 84 % 0 % 1018,1 hPa 0,0 l/m 11,2 km/h (2 Bft) 0 min 0 min 9,3 km/h (2 Bft)
14.09.2010 08:40 19,2 C 15,9 C 0,6 UV-I 0,0 C 66 % 84 % 0 % 1018,1 hPa 0,0 l/m 10,8 km/h (2 Bft) 0 min 0 min 10,6 km/h (2 Bft)
14.09.2010 08:42 19,2 C 15,9 C 0,6 UV-I 0,0 C 66 % 84 % 0 % 1018,1 hPa 0,0 l/m 10,8 km/h (2 Bft) 0 min 0 min 8,7 km/h (2 Bft)
14.09.2010 08:44 19,2 C 16,0 C 0,6 UV-I 0,0 C 66 % 84 % 0 % 1018,1 hPa 0,0 l/m 10,0 km/h (2 Bft) 0 min 0 min 10,3 km/h (2 Bft)
14.09.2010 08:50 19,2 C 16,0 C 0,8 UV-I 0,0 C 66 % 83 % 0 % 1017,7 hPa 0,0 l/m 9,2 km/h (2 Bft) 0 min 0 min 10,3 km/h (2 Bft)
14.09.2010 08:52 19,2 C 16,0 C 0,8 UV-I 0,0 C 66 % 83 % 0 % 1017,7 hPa 0,0 l/m 8,4 km/h (2 Bft) 0 min 0 min 10,9 km/h (2 Bft)
14.09.2010 08:54 19,2 C 16,0 C 0,8 UV-I 0,0 C 66 % 83 % 0 % 1017,7 hPa 0,0 l/m 8,0 km/h (2 Bft) 0 min 0 min 10,9 km/h (2 Bft)
14.09.2010 08:56 19,2 C 16,0 C 0,8 UV-I 0,0 C 66 % 83 % 0 % 1017,7 hPa 0,0 l/m 7,2 km/h (2 Bft) 0 min 0 min 11,3 km/h (2 Bft)
14.09.2010 08:58 19,2 C 16,0 C 0,9 UV-I 0,1 C 66 % 83 % 3 % 1017,7 hPa 0,0 l/m 8,8 km/h (2 Bft) 0 min 0 min 13,8 km/h (3 Bft)
14.09.2010 09:00 19,2 C 16,0 C 0,9 UV-I 0,1 C 66 % 83 % 3 % 1017,7 hPa 0,0 l/m 9,2 km/h (2 Bft) 0 min 0 min 21,6 km/h (4 Bft)
14.09.2010 09:06 19,3 C 16,1 C 1,0 UV-I 0,1 C 66 % 83 % 3 % 1017,8 hPa 0,0 l/m 11,6 km/h (2 Bft) 0 min 0 min 26,4 km/h (4 Bft)
14.09.2010 09:08 19,2 C 16,3 C 1,4 UV-I 0,0 C 66 % 82 % 0 % 1017,8 hPa 0,0 l/m 10,8 km/h (2 Bft) 0 min 0 min 10,0 km/h (2 Bft)
14.09.2010 09:10 19,2 C 16,3 C 1,4 UV-I 0,1 C 66 % 82 % 3 % 1017,8 hPa 0,0 l/m 11,2 km/h (2 Bft) 0 min 0 min 11,3 km/h (2 Bft)
14.09.2010 09:12 19,4 C 16,3 C 1,4 UV-I 0,1 C 66 % 82 % 3 % 1017,8 hPa 0,0 l/m 10,4 km/h (2 Bft) 0 min 0 min 16,1 km/h (3 Bft)
14.09.2010 09:14 19,4 C 16,2 C 1,6 UV-I 0,4 C 66 % 82 % 11 % 1017,8 hPa 0,0 l/m 10,0 km/h (2 Bft) 0 min 0 min 8,7 km/h (2 Bft)
14.09.2010 09:16 19,4 C 16,2 C 1,6 UV-I 0,4 C 66 % 82 % 11 % 1017,8 hPa 0,0 l/m 10,4 km/h (2 Bft) 0 min 0 min 10,6 km/h (2 Bft)
14.09.2010 09:18 19,4 C 16,3 C 1,5 UV-I 0,4 C 66 % 82 % 11 % 1017,8 hPa 0,0 l/m 10,4 km/h (2 Bft) 0 min 0 min 15,8 km/h (3 Bft)
14.09.2010 09:22 19,5 C 16,2 C 1,5 UV-I 0,6 C 65 % 82 % 17 % 1017,8 hPa 0,0 l/m 10,4 km/h (2 Bft) 0 min 0 min 15,8 km/h (3 Bft)
14.09.2010 09:24 19,5 C 16,3 C 1,4 UV-I 0,5 C 65 % 82 % 14 % 1017,8 hPa 0,0 l/m 10,0 km/h (2 Bft) 0 min 0 min 8,0 km/h (2 Bft)
14.09.2010 09:26 19,5 C 16,4 C 1,4 UV-I 0,4 C 65 % 82 % 11 % 1018,0 hPa 0,0 l/m 9,2 km/h (2 Bft) 0 min 0 min 6,8 km/h (2 Bft)
14.09.2010 09:32 19,6 C 16,4 C 1,4 UV-I 0,4 C 65 % 82 % 11 % 1018,0 hPa 0,0 l/m 8,4 km/h (2 Bft) 0 min 0 min 8,0 km/h (2 Bft)
14.09.2010 09:34 19,6 C 16,3 C 1,3 UV-I 0,4 C 65 % 82 % 11 % 1018,0 hPa 0,0 l/m 8,4 km/h (2 Bft) 0 min 0 min 13,5 km/h (3 Bft)
14.09.2010 09:36 19,6 C 16,3 C 1,3 UV-I 0,4 C 65 % 82 % 11 % 1018,0 hPa 0,0 l/m 8,4 km/h (2 Bft) 0 min 0 min 13,5 km/h (3 Bft)
14.09.2010 09:38 19,7 C 16,4 C 1,3 UV-I 0,3 C 65 % 82 % 9 % 1018,0 hPa 0,0 l/m 9,2 km/h (2 Bft) 0 min 0 min 23,5 km/h (4 Bft)
14.09.2010 09:40 19,7 C 16,4 C 1,3 UV-I 0,3 C 65 % 82 % 9 % 1018,0 hPa 0,0 l/m 9,2 km/h (2 Bft) 0 min 0 min 23,5 km/h (4 Bft)
14.09.2010 09:42 19,7 C 16,3 C 1,3 UV-I 0,3 C 65 % 81 % 9 % 1018,0 hPa 0,0 l/m 10,4 km/h (2 Bft) 0 min 0 min 12,2 km/h (2 Bft)
14.09.2010 09:46 19,8 C 16,3 C 1,3 UV-I 0,2 C 65 % 81 % 6 % 1018,2 hPa 0,0 l/m 12,0 km/h (2 Bft) 0 min 0 min 24,8 km/h (4 Bft)
14.09.2010 09:48 19,8 C 16,4 C 1,3 UV-I 0,1 C 65 % 82 % 3 % 1018,2 hPa 0,0 l/m 12,4 km/h (3 Bft) 0 min 0 min 16,4 km/h (3 Bft)
14.09.2010 09:50 19,8 C 16,4 C 1,3 UV-I 0,1 C 65 % 82 % 3 % 1018,2 hPa 0,0 l/m 13,3 km/h (3 Bft) 0 min 0 min 24,1 km/h (4 Bft)
14.09.2010 09:52 19,8 C 16,4 C 1,3 UV-I 0,1 C 65 % 82 % 3 % 1018,2 hPa 0,0 l/m 12,4 km/h (3 Bft) 0 min 0 min 24,1 km/h (4 Bft)
14.09.2010 09:54 19,8 C 16,4 C 1,5 UV-I 0,1 C 65 % 82 % 3 % 1018,2 hPa 0,0 l/m 12,4 km/h (3 Bft) 0 min 0 min 10,9 km/h (2 Bft)
14.09.2010 09:56 19,9 C 16,3 C 1,5 UV-I 0,2 C 65 % 81 % 6 % 1018,2 hPa 0,0 l/m 11,6 km/h (2 Bft) 0 min 0 min 9,7 km/h (2 Bft)
14.09.2010 10:00 20,0 C 16,4 C 1,5 UV-I 0,2 C 65 % 82 % 6 % 1018,2 hPa 0,0 l/m 11,2 km/h (2 Bft) 0 min 0 min 11,6 km/h (2 Bft)
14.09.2010 10:02 19,9 C 16,4 C 1,5 UV-I 0,2 C 65 % 82 % 6 % 1018,2 hPa 0,0 l/m 10,0 km/h (2 Bft) 0 min 0 min 15,1 km/h (3 Bft)
14.09.2010 10:04 20,0 C 16,4 C 1,7 UV-I 0,3 C 64 % 82 % 9 % 1018,2 hPa 0,0 l/m 11,2 km/h (2 Bft) 0 min 0 min 15,1 km/h (3 Bft)
14.09.2010 10:06 20,0 C 16,5 C 1,7 UV-I 0,2 C 64 % 82 % 6 % 1018,3 hPa 0,0 l/m 10,8 km/h (2 Bft) 0 min 0 min 9,3 km/h (2 Bft)
14.09.2010 10:08 20,0 C 16,5 C 1,6 UV-I 0,2 C 64 % 82 % 6 % 1018,3 hPa 0,0 l/m 10,0 km/h (2 Bft) 0 min 0 min 9,3 km/h (2 Bft)
14.09.2010 10:10 20,0 C 16,5 C 1,6 UV-I 0,3 C 64 % 82 % 9 % 1018,3 hPa 0,0 l/m 10,0 km/h (2 Bft) 0 min 0 min 17,1 km/h (3 Bft)
14.09.2010 10:12 20,0 C 16,5 C 1,6 UV-I 0,3 C 64 % 82 % 9 % 1018,3 hPa 0,0 l/m 10,0 km/h (2 Bft) 0 min 0 min 17,1 km/h (3 Bft)
14.09.2010 10:14 20,0 C 16,4 C 1,6 UV-I 0,5 C 64 % 82 % 14 % 1018,3 hPa 0,0 l/m 10,4 km/h (2 Bft) 0 min 0 min 12,6 km/h (3 Bft)
14.09.2010 10:16 20,1 C 16,5 C 1,6 UV-I 0,4 C 64 % 82 % 11 % 1018,3 hPa 0,0 l/m 10,4 km/h (2 Bft) 0 min 0 min 13,2 km/h (3 Bft)
14.09.2010 10:18 20,1 C 16,4 C 1,6 UV-I 0,5 C 64 % 82 % 14 % 1018,3 hPa 0,0 l/m 11,2 km/h (2 Bft) 0 min 0 min 25,1 km/h (4 Bft)
14.09.2010 10:20 20,1 C 16,5 C 1,6 UV-I 0,6 C 64 % 82 % 17 % 1018,3 hPa 0,0 l/m 11,6 km/h (2 Bft) 0 min 0 min 14,2 km/h (3 Bft)
14.09.2010 10:22 20,1 C 16,5 C 1,6 UV-I 0,6 C 64 % 81 % 17 % 1018,3 hPa 0,0 l/m 12,0 km/h (2 Bft) 0 min 0 min 12,9 km/h (3 Bft)
14.09.2010 10:24 20,1 C 16,6 C 2,2 UV-I 0,6 C 64 % 81 % 17 % 1018,3 hPa 0,0 l/m 11,6 km/h (2 Bft) 0 min 0 min 23,2 km/h (4 Bft)
14.09.2010 10:26 20,2 C 16,7 C 2,2 UV-I 0,6 C 64 % 81 % 17 % 1018,2 hPa 0,0 l/m 12,4 km/h (3 Bft) 0 min 0 min 23,2 km/h (4 Bft)
14.09.2010 10:28 20,2 C 16,7 C 2,1 UV-I 0,6 C 64 % 81 % 17 % 1018,2 hPa 0,0 l/m 12,4 km/h (3 Bft) 0 min 0 min 13,5 km/h (3 Bft)
14.09.2010 10:30 20,2 C 16,7 C 2,1 UV-I 0,6 C 64 % 81 % 17 % 1018,2 hPa 0,0 l/m 11,6 km/h (2 Bft) 0 min 0 min 13,5 km/h (3 Bft)
14.09.2010 10:32 20,2 C 16,7 C 2,1 UV-I 0,7 C 64 % 81 % 20 % 1018,2 hPa 0,0 l/m 12,0 km/h (2 Bft) 0 min 0 min 10,0 km/h (2 Bft)
14.09.2010 10:34 20,2 C 16,6 C 2,1 UV-I 0,8 C 64 % 81 % 23 % 1018,2 hPa 0,0 l/m 12,0 km/h (2 Bft) 0 min 0 min 29,3 km/h (5 Bft)
14.09.2010 10:36 20,3 C 16,7 C 2,1 UV-I 0,8 C 64 % 81 % 23 % 1018,2 hPa 0,0 l/m 11,6 km/h (2 Bft) 0 min 0 min 12,2 km/h (2 Bft)
14.09.2010 10:38 20,3 C 16,7 C 2,0 UV-I 0,8 C 64 % 81 % 23 % 1018,2 hPa 0,0 l/m 10,8 km/h (2 Bft) 0 min 0 min 8,4 km/h (2 Bft)
14.09.2010 10:40 20,3 C 16,7 C 2,0 UV-I 0,8 C 64 % 81 % 23 % 1018,2 hPa 0,0 l/m 10,8 km/h (2 Bft) 0 min 0 min 10,6 km/h (2 Bft)
14.09.2010 10:42 20,3 C 16,7 C 2,0 UV-I 0,8 C 64 % 81 % 23 % 1018,2 hPa 0,0 l/m 9,6 km/h (2 Bft) 0 min 0 min 10,6 km/h (2 Bft)
14.09.2010 10:46 20,2 C 16,8 C 1,9 UV-I 0,7 C 64 % 81 % 20 % 1018,2 hPa 0,0 l/m 7,6 km/h (2 Bft) 0 min 0 min 8,4 km/h (2 Bft)
14.09.2010 10:50 20,4 C 16,9 C 2,1 UV-I 0,7 C 64 % 81 % 20 % 1018,2 hPa 0,0 l/m 8,8 km/h (2 Bft) 0 min 0 min 17,1 km/h (3 Bft)
14.09.2010 10:52 20,4 C 16,8 C 2,1 UV-I 0,8 C 64 % 81 % 23 % 1018,2 hPa 0,0 l/m 9,2 km/h (2 Bft) 0 min 0 min 12,6 km/h (3 Bft)
14.09.2010 10:56 20,4 C 16,9 C 2,5 UV-I 0,9 C 64 % 81 % 26 % 1018,2 hPa 0,0 l/m 12,0 km/h (2 Bft) 0 min 0 min 39,3 km/h (6 Bft)
14.09.2010 10:58 20,4 C 16,9 C 2,6 UV-I 0,9 C 64 % 81 % 26 % 1018,2 hPa 0,0 l/m 12,0 km/h (2 Bft) 0 min 0 min 9,0 km/h (2 Bft)
14.09.2010 11:02 20,4 C 16,9 C 2,6 UV-I 1,0 C 64 % 81 % 29 % 1018,2 hPa 0,0 l/m 11,2 km/h (2 Bft) 0 min 0 min 13,2 km/h (3 Bft)
14.09.2010 11:04 20,5 C 17,1 C 2,8 UV-I 1,0 C 64 % 80 % 29 % 1018,2 hPa 0,0 l/m 12,0 km/h (2 Bft) 0 min 0 min 39,3 km/h (6 Bft)
14.09.2010 11:06 20,5 C 17,1 C 2,8 UV-I 1,0 C 64 % 81 % 29 % 1018,2 hPa 0,0 l/m 11,2 km/h (2 Bft) 0 min 0 min 12,2 km/h (2 Bft)
14.09.2010 11:08 20,5 C 17,1 C 2,9 UV-I 1,2 C 64 % 81 % 34 % 1018,2 hPa 0,0 l/m 10,4 km/h (2 Bft) 0 min 0 min 9,0 km/h (2 Bft)
14.09.2010 11:10 20,5 C 17,1 C 2,9 UV-I 1,2 C 64 % 80 % 34 % 1018,2 hPa 0,0 l/m 11,2 km/h (2 Bft) 0 min 0 min 6,1 km/h (2 Bft)
14.09.2010 11:12 20,6 C 17,2 C 2,9 UV-I 1,2 C 64 % 80 % 34 % 1018,2 hPa 0,0 l/m 10,4 km/h (2 Bft) 0 min 0 min 9,0 km/h (2 Bft)
14.09.2010 11:14 20,6 C 17,1 C 2,8 UV-I 1,3 C 64 % 80 % 37 % 1018,2 hPa 0,0 l/m 9,6 km/h (2 Bft) 0 min 0 min 11,9 km/h (2 Bft)
14.09.2010 11:16 20,6 C 17,1 C 2,8 UV-I 1,3 C 64 % 80 % 37 % 1018,2 hPa 0,0 l/m 10,0 km/h (2 Bft) 0 min 0 min 20,3 km/h (4 Bft)
14.09.2010 11:20 20,6 C 17,1 C 2,7 UV-I 1,2 C 64 % 80 % 34 % 1018,2 hPa 0,0 l/m 13,3 km/h (3 Bft) 0 min 0 min 15,8 km/h (3 Bft)
14.09.2010 11:22 20,6 C 17,2 C 2,7 UV-I 1,1 C 63 % 80 % 31 % 1018,2 hPa 0,0 l/m 12,4 km/h (3 Bft) 0 min 0 min 14,5 km/h (3 Bft)
14.09.2010 11:26 20,7 C 17,2 C 2,8 UV-I 1,0 C 63 % 80 % 29 % 1018,1 hPa 0,0 l/m 14,1 km/h (3 Bft) 0 min 0 min 52,8 km/h (7 Bft)
14.09.2010 11:28 20,7 C 17,1 C 2,9 UV-I 1,2 C 63 % 80 % 34 % 1018,1 hPa 0,0 l/m 14,5 km/h (3 Bft) 0 min 0 min 29,3 km/h (5 Bft)
14.09.2010 11:30 20,7 C 17,3 C 2,9 UV-I 1,0 C 63 % 80 % 29 % 1018,1 hPa 0,0 l/m 12,8 km/h (3 Bft) 0 min 0 min 29,3 km/h (5 Bft)
14.09.2010 11:32 20,7 C 17,2 C 2,9 UV-I 1,1 C 63 % 80 % 31 % 1018,1 hPa 0,0 l/m 12,4 km/h (3 Bft) 0 min 0 min 10,9 km/h (2 Bft)
14.09.2010 11:34 20,7 C 17,2 C 2,9 UV-I 1,1 C 63 % 80 % 31 % 1018,1 hPa 0,0 l/m 14,5 km/h (3 Bft) 0 min 0 min 21,2 km/h (4 Bft)
14.09.2010 11:36 20,7 C 17,2 C 2,9 UV-I 1,1 C 63 % 80 % 31 % 1018,1 hPa 0,0 l/m 14,5 km/h (3 Bft) 0 min 0 min 11,9 km/h (2 Bft)
14.09.2010 11:40 20,8 C 17,3 C 2,6 UV-I 0,9 C 63 % 80 % 26 % 1018,1 hPa 0,0 l/m 14,5 km/h (3 Bft) 0 min 0 min 21,6 km/h (4 Bft)
14.09.2010 11:42 20,8 C 17,3 C 2,6 UV-I 0,9 C 63 % 79 % 26 % 1018,1 hPa 0,0 l/m 16,5 km/h (3 Bft) 0 min 0 min 21,6 km/h (4 Bft)
14.09.2010 11:44 20,8 C 17,3 C 2,4 UV-I 0,8 C 63 % 79 % 23 % 1018,1 hPa 0,0 l/m 16,5 km/h (3 Bft) 0 min 0 min 22,9 km/h (4 Bft)
14.09.2010 11:46 20,8 C 17,2 C 2,4 UV-I 0,9 C 63 % 79 % 26 % 1017,8 hPa 0,0 l/m 15,7 km/h (3 Bft) 0 min 0 min 22,9 km/h (4 Bft)
14.09.2010 11:48 20,8 C 17,2 C 1,9 UV-I 0,7 C 63 % 80 % 20 % 1017,8 hPa 0,0 l/m 15,7 km/h (3 Bft) 0 min 0 min 12,9 km/h (3 Bft)
14.09.2010 11:50 20,8 C 17,2 C 1,9 UV-I 0,7 C 63 % 80 % 20 % 1017,8 hPa 0,0 l/m 15,3 km/h (3 Bft) 0 min 0 min 4,5 km/h (1 Bft)
14.09.2010 11:52 20,8 C 17,2 C 1,9 UV-I 0,7 C 63 % 80 % 20 % 1017,8 hPa 0,0 l/m 13,7 km/h (3 Bft) 0 min 0 min 10,6 km/h (2 Bft)
14.09.2010 11:54 20,8 C 17,2 C 2,3 UV-I 0,7 C 63 % 79 % 20 % 1017,8 hPa 0,0 l/m 13,3 km/h (3 Bft) 0 min 0 min 12,9 km/h (3 Bft)
14.09.2010 11:58 20,8 C 17,3 C 2,6 UV-I 0,6 C 63 % 79 % 17 % 1017,8 hPa 0,0 l/m 12,0 km/h (2 Bft) 0 min 0 min 17,4 km/h (3 Bft)
14.09.2010 12:00 20,9 C 17,2 C 2,6 UV-I 0,9 C 63 % 79 % 26 % 1017,8 hPa 0,0 l/m 10,8 km/h (2 Bft) 0 min 0 min 8,0 km/h (2 Bft)
14.09.2010 12:02 20,9 C 17,2 C 2,6 UV-I 0,9 C 63 % 79 % 26 % 1017,8 hPa 0,0 l/m 11,6 km/h (2 Bft) 0 min 0 min 17,1 km/h (3 Bft)
14.09.2010 12:04 20,9 C 17,2 C 2,6 UV-I 0,9 C 63 % 79 % 26 % 1017,8 hPa 0,0 l/m 11,6 km/h (2 Bft) 0 min 0 min 17,1 km/h (3 Bft)
14.09.2010 12:06 20,9 C 17,2 C 2,6 UV-I 0,9 C 63 % 79 % 26 % 1017,9 hPa 0,0 l/m 11,6 km/h (2 Bft) 0 min 0 min 17,1 km/h (3 Bft)
14.09.2010 12:08 20,9 C 17,2 C 2,6 UV-I 0,9 C 63 % 79 % 26 % 1017,9 hPa 0,0 l/m 11,6 km/h (2 Bft) 0 min 0 min 17,1 km/h (3 Bft)
14.09.2010 12:14 20,9 C 17,5 C 3,0 UV-I 1,1 C 63 % 78 % 31 % 1017,9 hPa 0,0 l/m 11,2 km/h (2 Bft) 0 min 0 min 17,1 km/h (3 Bft)
14.09.2010 12:16 21,0 C 17,4 C 3,0 UV-I 1,2 C 62 % 78 % 34 % 1017,9 hPa 0,0 l/m 11,2 km/h (2 Bft) 0 min 0 min 26,4 km/h (4 Bft)
14.09.2010 12:18 21,0 C 17,5 C 3,0 UV-I 1,2 C 62 % 78 % 34 % 1017,9 hPa 0,0 l/m 11,2 km/h (2 Bft) 0 min 0 min 26,4 km/h (4 Bft)
14.09.2010 12:20 21,0 C 17,5 C 3,0 UV-I 1,3 C 62 % 78 % 37 % 1017,9 hPa 0,0 l/m 11,2 km/h (2 Bft) 0 min 0 min 19,3 km/h (3 Bft)
14.09.2010 12:22 21,0 C 17,5 C 3,0 UV-I 1,4 C 62 % 78 % 40 % 1017,9 hPa 0,0 l/m 10,4 km/h (2 Bft) 0 min 0 min 13,8 km/h (3 Bft)
14.09.2010 12:24 21,0 C 17,6 C 3,1 UV-I 1,4 C 62 % 78 % 40 % 1017,9 hPa 0,0 l/m 10,4 km/h (2 Bft) 0 min 0 min 13,8 km/h (3 Bft)
14.09.2010 12:26 21,0 C 17,7 C 3,1 UV-I 1,4 C 62 % 78 % 40 % 1018,1 hPa 0,0 l/m 10,8 km/h (2 Bft) 0 min 0 min 12,9 km/h (3 Bft)
14.09.2010 12:28 21,0 C 17,6 C 3,6 UV-I 1,6 C 62 % 77 % 46 % 1018,1 hPa 0,0 l/m 12,4 km/h (3 Bft) 0 min 0 min 14,2 km/h (3 Bft)
14.09.2010 12:30 21,1 C 17,7 C 3,6 UV-I 1,6 C 62 % 77 % 46 % 1018,1 hPa 0,0 l/m 12,4 km/h (3 Bft) 0 min 0 min 6,1 km/h (2 Bft)
14.09.2010 12:34 21,1 C 17,7 C 2,8 UV-I 1,5 C 62 % 76 % 43 % 1018,1 hPa 0,0 l/m 14,1 km/h (3 Bft) 0 min 0 min 28,0 km/h (4 Bft)
14.09.2010 12:36 21,1 C 17,7 C 2,8 UV-I 1,3 C 62 % 76 % 37 % 1018,1 hPa 0,0 l/m 14,9 km/h (3 Bft) 0 min 0 min 15,8 km/h (3 Bft)
14.09.2010 12:38 21,1 C 17,7 C 2,1 UV-I 1,1 C 62 % 76 % 31 % 1018,1 hPa 0,0 l/m 15,3 km/h (3 Bft) 0 min 0 min 13,8 km/h (3 Bft)
14.09.2010 12:40 21,1 C 17,6 C 2,1 UV-I 1,1 C 62 % 76 % 31 % 1018,1 hPa 0,0 l/m 13,7 km/h (3 Bft) 0 min 0 min 13,8 km/h (3 Bft)
14.09.2010 12:42 21,1 C 17,6 C 2,1 UV-I 1,0 C 61 % 76 % 29 % 1018,1 hPa 0,0 l/m 14,5 km/h (3 Bft) 0 min 0 min 21,2 km/h (4 Bft)
14.09.2010 12:46 21,2 C 17,7 C 2,5 UV-I 0,9 C 61 % 76 % 26 % 1018,2 hPa 0,0 l/m 12,4 km/h (3 Bft) 0 min 0 min 21,2 km/h (4 Bft)
14.09.2010 12:48 21,2 C 17,7 C 2,4 UV-I 0,9 C 61 % 76 % 26 % 1018,2 hPa 0,0 l/m 12,0 km/h (2 Bft) 0 min 0 min 9,3 km/h (2 Bft)
14.09.2010 12:50 21,2 C 17,7 C 2,4 UV-I 0,9 C 61 % 76 % 26 % 1018,2 hPa 0,0 l/m 12,8 km/h (3 Bft) 0 min 0 min 11,6 km/h (2 Bft)
14.09.2010 12:54 21,2 C 17,7 C 2,7 UV-I 0,9 C 61 % 76 % 26 % 1018,2 hPa 0,0 l/m 11,6 km/h (2 Bft) 0 min 0 min 17,1 km/h (3 Bft)
14.09.2010 12:56 21,2 C 17,8 C 2,7 UV-I 0,9 C 61 % 76 % 26 % 1018,2 hPa 0,0 l/m 12,4 km/h (3 Bft) 0 min 0 min 17,1 km/h (3 Bft)
14.09.2010 12:58 21,2 C 17,9 C 2,7 UV-I 1,0 C 61 % 76 % 29 % 1018,2 hPa 0,0 l/m 11,6 km/h (2 Bft) 0 min 0 min 11,6 km/h (2 Bft)
14.09.2010 13:00 21,2 C 17,9 C 2,7 UV-I 1,3 C 61 % 76 % 37 % 1018,2 hPa 0,0 l/m 11,2 km/h (2 Bft) 0 min 0 min 15,1 km/h (3 Bft)
14.09.2010 13:02 21,2 C 17,9 C 2,7 UV-I 1,4 C 61 % 76 % 40 % 1018,2 hPa 0,0 l/m 10,8 km/h (2 Bft) 0 min 0 min 17,7 km/h (3 Bft)
14.09.2010 13:04 21,2 C 17,9 C 3,7 UV-I 1,5 C 61 % 76 % 43 % 1018,2 hPa 0,0 l/m 11,2 km/h (2 Bft) 0 min 0 min 17,4 km/h (3 Bft)
14.09.2010 13:06 21,2 C 18,1 C 3,7 UV-I 1,4 C 61 % 75 % 40 % 1017,7 hPa 0,0 l/m 11,2 km/h (2 Bft) 0 min 0 min 15,1 km/h (3 Bft)
14.09.2010 13:10 21,3 C 18,0 C 3,3 UV-I 1,4 C 61 % 75 % 40 % 1017,7 hPa 0,0 l/m 11,6 km/h (2 Bft) 0 min 2 min 12,2 km/h (2 Bft)
14.09.2010 13:12 21,2 C 18,0 C 3,3 UV-I 1,1 C 61 % 76 % 31 % 1017,7 hPa 0,0 l/m 11,6 km/h (2 Bft) 0 min 2 min 19,3 km/h (3 Bft)
14.09.2010 13:14 21,3 C 17,9 C 3,0 UV-I 0,9 C 61 % 77 % 26 % 1017,7 hPa 0,0 l/m 12,0 km/h (2 Bft) 0 min 2 min 19,3 km/h (3 Bft)
14.09.2010 13:16 21,2 C 17,9 C 3,0 UV-I 0,6 C 61 % 77 % 17 % 1017,7 hPa 0,0 l/m 12,0 km/h (2 Bft) 0 min 0 min 11,3 km/h (2 Bft)
14.09.2010 13:18 21,3 C 17,9 C 3,4 UV-I 0,6 C 61 % 77 % 17 % 1017,7 hPa 0,0 l/m 12,0 km/h (2 Bft) 0 min 0 min 11,3 km/h (2 Bft)
14.09.2010 13:20 21,2 C 17,9 C 3,4 UV-I 0,7 C 61 % 77 % 20 % 1017,7 hPa 0,0 l/m 11,6 km/h (2 Bft) 0 min 0 min 8,0 km/h (2 Bft)
14.09.2010 13:22 21,2 C 17,9 C 3,4 UV-I 0,8 C 61 % 77 % 23 % 1017,7 hPa 0,0 l/m 12,0 km/h (2 Bft) 0 min 0 min 10,3 km/h (2 Bft)
14.09.2010 13:24 21,2 C 17,9 C 3,0 UV-I 0,9 C 61 % 77 % 26 % 1017,7 hPa 0,0 l/m 11,2 km/h (2 Bft) 0 min 0 min 10,3 km/h (2 Bft)
14.09.2010 13:26 21,4 C 18,0 C 3,0 UV-I 0,9 C 61 % 77 % 26 % 1017,7 hPa 0,0 l/m 10,8 km/h (2 Bft) 0 min 0 min 9,7 km/h (2 Bft)
14.09.2010 13:28 21,4 C 18,0 C 3,4 UV-I 1,0 C 61 % 77 % 29 % 1017,7 hPa 0,0 l/m 9,6 km/h (2 Bft) 0 min 0 min 17,4 km/h (3 Bft)
14.09.2010 13:30 21,4 C 18,1 C 3,4 UV-I 1,1 C 61 % 76 % 31 % 1017,7 hPa 0,0 l/m 11,2 km/h (2 Bft) 0 min 0 min 30,6 km/h (5 Bft)
14.09.2010 13:32 21,4 C 18,0 C 3,4 UV-I 1,3 C 61 % 76 % 37 % 1017,7 hPa 0,0 l/m 11,2 km/h (2 Bft) 0 min 0 min 30,6 km/h (5 Bft)
14.09.2010 13:34 21,4 C 18,1 C 4,0 UV-I 1,4 C 61 % 76 % 40 % 1017,7 hPa 0,0 l/m 12,0 km/h (2 Bft) 0 min 0 min 10,6 km/h (2 Bft)
14.09.2010 13:36 21,4 C 18,1 C 4,0 UV-I 1,4 C 61 % 76 % 40 % 1017,7 hPa 0,0 l/m 12,0 km/h (2 Bft) 0 min 0 min 13,5 km/h (3 Bft)
14.09.2010 13:38 21,4 C 18,2 C 3,7 UV-I 1,5 C 61 % 75 % 43 % 1017,7 hPa 0,0 l/m 12,0 km/h (2 Bft) 0 min 0 min 16,4 km/h (3 Bft)
14.09.2010 13:42 21,4 C 18,2 C 3,7 UV-I 1,5 C 61 % 76 % 43 % 1017,7 hPa 0,0 l/m 10,4 km/h (2 Bft) 0 min 0 min 19,6 km/h (3 Bft)
14.09.2010 13:44 21,4 C 18,3 C 3,5 UV-I 1,4 C 61 % 76 % 40 % 1017,7 hPa 0,0 l/m 10,8 km/h (2 Bft) 0 min 0 min 19,6 km/h (3 Bft)
14.09.2010 13:48 21,5 C 18,3 C 3,5 UV-I 1,5 C 61 % 75 % 43 % 1017,7 hPa 0,0 l/m 10,4 km/h (2 Bft) 0 min 0 min 10,6 km/h (2 Bft)
14.09.2010 13:50 21,5 C 18,3 C 3,5 UV-I 1,5 C 61 % 76 % 43 % 1017,7 hPa 0,0 l/m 9,6 km/h (2 Bft) 0 min 0 min 10,6 km/h (2 Bft)
14.09.2010 13:52 21,5 C 18,3 C 3,5 UV-I 1,6 C 61 % 76 % 46 % 1017,7 hPa 0,0 l/m 10,0 km/h (2 Bft) 0 min 0 min 21,6 km/h (4 Bft)
14.09.2010 13:54 21,5 C 18,4 C 3,3 UV-I 1,5 C 61 % 76 % 43 % 1017,7 hPa 0,0 l/m 8,8 km/h (2 Bft) 0 min 0 min 21,6 km/h (4 Bft)
14.09.2010 13:56 21,5 C 18,4 C 3,3 UV-I 1,5 C 61 % 76 % 43 % 1017,7 hPa 0,0 l/m 8,8 km/h (2 Bft) 0 min 0 min 8,4 km/h (2 Bft)
14.09.2010 13:58 21,5 C 18,4 C 3,3 UV-I 1,5 C 61 % 76 % 43 % 1017,7 hPa 0,0 l/m 8,4 km/h (2 Bft) 0 min 0 min 8,4 km/h (2 Bft)
14.09.2010 14:00 21,5 C 18,4 C 3,3 UV-I 1,6 C 61 % 75 % 46 % 1017,7 hPa 0,0 l/m 9,2 km/h (2 Bft) 0 min 0 min 17,1 km/h (3 Bft)
14.09.2010 14:02 21,6 C 18,5 C 3,3 UV-I 1,4 C 61 % 74 % 40 % 1017,7 hPa 0,0 l/m 9,6 km/h (2 Bft) 0 min 0 min 17,1 km/h (3 Bft)
14.09.2010 14:06 21,6 C 18,4 C 3,3 UV-I 1,5 C 61 % 75 % 43 % 1017,6 hPa 0,0 l/m 9,2 km/h (2 Bft) 0 min 0 min 10,0 km/h (2 Bft)
14.09.2010 14:10 21,6 C 18,4 C 2,9 UV-I 1,3 C 61 % 74 % 37 % 1017,6 hPa 0,0 l/m 10,8 km/h (2 Bft) 0 min 0 min 15,1 km/h (3 Bft)
14.09.2010 14:12 21,6 C 18,4 C 2,9 UV-I 1,2 C 61 % 74 % 34 % 1017,6 hPa 0,0 l/m 10,0 km/h (2 Bft) 0 min 2 min 13,8 km/h (3 Bft)
14.09.2010 14:14 21,6 C 18,3 C 2,9 UV-I 1,2 C 60 % 74 % 34 % 1017,6 hPa 0,0 l/m 11,2 km/h (2 Bft) 0 min 0 min 13,8 km/h (3 Bft)
14.09.2010 14:16 21,6 C 18,3 C 2,9 UV-I 1,1 C 60 % 74 % 31 % 1017,6 hPa 0,0 l/m 11,6 km/h (2 Bft) 0 min 0 min 12,2 km/h (2 Bft)
14.09.2010 14:21 21,6 C 18,3 C 2,6 UV-I 1,0 C 60 % 75 % 29 % 1017,6 hPa 0,0 l/m 10,4 km/h (2 Bft) 0 min 0 min 26,1 km/h (4 Bft)
14.09.2010 14:26 21,6 C 18,3 C 2,9 UV-I 1,1 C 60 % 74 % 31 % 1017,2 hPa 0,0 l/m 10,0 km/h (2 Bft) 0 min 0 min 13,5 km/h (3 Bft)
14.09.2010 14:31 21,7 C 18,3 C 3,0 UV-I 1,2 C 60 % 74 % 34 % 1017,2 hPa 0,0 l/m 11,2 km/h (2 Bft) 0 min 0 min 10,6 km/h (2 Bft)
14.09.2010 14:36 21,7 C 18,3 C 3,3 UV-I 1,2 C 60 % 74 % 34 % 1017,2 hPa 0,0 l/m 10,8 km/h (2 Bft) 0 min 0 min 15,4 km/h (3 Bft)
14.09.2010 14:41 21,7 C 18,4 C 2,9 UV-I 1,3 C 60 % 74 % 37 % 1017,2 hPa 0,0 l/m 9,2 km/h (2 Bft) 0 min 0 min 8,4 km/h (2 Bft)
14.09.2010 14:46 21,8 C 18,5 C 3,1 UV-I 1,4 C 60 % 74 % 40 % 1017,2 hPa 0,0 l/m 8,4 km/h (2 Bft) 0 min 0 min 12,2 km/h (2 Bft)
14.09.2010 14:48 21,8 C 18,6 C 3,7 UV-I 1,5 C 60 % 74 % 43 % 1017,2 hPa 0,0 l/m 8,8 km/h (2 Bft) 0 min 0 min 9,3 km/h (2 Bft)
14.09.2010 14:50 21,8 C 18,6 C 3,7 UV-I 1,6 C 60 % 73 % 46 % 1017,2 hPa 0,0 l/m 9,2 km/h (2 Bft) 0 min 0 min 11,9 km/h (2 Bft)
14.09.2010 14:52 21,8 C 18,7 C 3,7 UV-I 1,6 C 60 % 74 % 46 % 1017,2 hPa 0,0 l/m 9,6 km/h (2 Bft) 0 min 0 min 17,1 km/h (3 Bft)
14.09.2010 14:54 21,8 C 18,7 C 3,5 UV-I 1,7 C 60 % 73 % 49 % 1017,2 hPa 0,0 l/m 9,6 km/h (2 Bft) 0 min 0 min 17,1 km/h (3 Bft)
14.09.2010 14:56 21,8 C 18,9 C 3,5 UV-I 1,6 C 60 % 74 % 46 % 1017,2 hPa 0,0 l/m 10,4 km/h (2 Bft) 0 min 0 min 28,6 km/h (4 Bft)
14.09.2010 14:58 21,8 C 18,9 C 3,6 UV-I 1,6 C 60 % 73 % 46 % 1017,2 hPa 0,0 l/m 10,0 km/h (2 Bft) 0 min 0 min 28,6 km/h (4 Bft)
14.09.2010 15:00 21,9 C 18,9 C 3,6 UV-I 1,7 C 60 % 73 % 49 % 1017,2 hPa 0,0 l/m 10,4 km/h (2 Bft) 0 min 0 min 14,2 km/h (3 Bft)
14.09.2010 15:02 21,9 C 18,8 C 3,6 UV-I 1,8 C 60 % 73 % 51 % 1017,2 hPa 0,0 l/m 10,0 km/h (2 Bft) 0 min 0 min 14,2 km/h (3 Bft)
14.09.2010 15:04 21,9 C 19,0 C 4,0 UV-I 1,7 C 60 % 73 % 49 % 1017,2 hPa 0,0 l/m 10,4 km/h (2 Bft) 0 min 0 min 5,8 km/h (2 Bft)
14.09.2010 15:06 21,9 C 19,1 C 4,0 UV-I 1,7 C 60 % 73 % 49 % 1017,3 hPa 0,0 l/m 11,2 km/h (2 Bft) 0 min 0 min 21,6 km/h (4 Bft)
14.09.2010 15:08 21,9 C 19,0 C 3,7 UV-I 1,9 C 60 % 72 % 54 % 1017,3 hPa 0,0 l/m 11,2 km/h (2 Bft) 0 min 0 min 21,6 km/h (4 Bft)
14.09.2010 15:10 21,9 C 19,1 C 3,7 UV-I 1,7 C 60 % 72 % 49 % 1017,3 hPa 0,0 l/m 11,6 km/h (2 Bft) 0 min 0 min 9,7 km/h (2 Bft)
14.09.2010 15:12 22,0 C 19,0 C 3,7 UV-I 1,6 C 60 % 72 % 46 % 1017,3 hPa 0,0 l/m 12,0 km/h (2 Bft) 0 min 0 min 13,5 km/h (3 Bft)
14.09.2010 15:14 22,0 C 19,0 C 2,8 UV-I 1,6 C 60 % 73 % 46 % 1017,3 hPa 0,0 l/m 11,6 km/h (2 Bft) 0 min 0 min 13,5 km/h (3 Bft)
14.09.2010 15:16 22,0 C 18,9 C 2,8 UV-I 1,5 C 60 % 72 % 43 % 1017,3 hPa 0,0 l/m 12,4 km/h (3 Bft) 0 min 0 min 12,6 km/h (3 Bft)
14.09.2010 15:18 22,0 C 18,9 C 2,6 UV-I 1,3 C 60 % 72 % 37 % 1017,3 hPa 0,0 l/m 11,6 km/h (2 Bft) 0 min 0 min 12,6 km/h (3 Bft)
14.09.2010 15:20 22,0 C 18,9 C 2,6 UV-I 1,3 C 60 % 73 % 37 % 1017,3 hPa 0,0 l/m 10,4 km/h (2 Bft) 0 min 0 min 7,1 km/h (2 Bft)
14.09.2010 15:22 22,0 C 18,9 C 2,6 UV-I 1,2 C 60 % 73 % 34 % 1017,3 hPa 0,0 l/m 8,8 km/h (2 Bft) 0 min 0 min 8,4 km/h (2 Bft)
14.09.2010 15:24 22,0 C 18,9 C 2,1 UV-I 1,1 C 60 % 73 % 31 % 1017,3 hPa 0,0 l/m 8,4 km/h (2 Bft) 0 min 0 min 8,4 km/h (2 Bft)
14.09.2010 15:26 22,1 C 18,9 C 2,1 UV-I 1,0 C 60 % 73 % 29 % 1017,1 hPa 0,0 l/m 6,8 km/h (2 Bft) 0 min 0 min 7,7 km/h (2 Bft)
14.09.2010 15:28 22,1 C 18,9 C 2,0 UV-I 1,0 C 60 % 72 % 29 % 1017,1 hPa 0,0 l/m 7,2 km/h (2 Bft) 0 min 0 min 14,2 km/h (3 Bft)
14.09.2010 15:30 22,1 C 18,8 C 2,0 UV-I 1,0 C 60 % 72 % 29 % 1017,1 hPa 0,0 l/m 8,4 km/h (2 Bft) 0 min 0 min 14,2 km/h (3 Bft)
14.09.2010 15:32 22,1 C 18,8 C 2,0 UV-I 0,8 C 60 % 72 % 23 % 1017,1 hPa 0,0 l/m 10,4 km/h (2 Bft) 0 min 0 min 10,9 km/h (2 Bft)
14.09.2010 15:34 22,1 C 18,8 C 1,9 UV-I 0,7 C 60 % 72 % 20 % 1017,1 hPa 0,0 l/m 10,8 km/h (2 Bft) 0 min 0 min 8,0 km/h (2 Bft)
14.09.2010 15:36 22,1 C 18,8 C 1,9 UV-I 0,7 C 60 % 72 % 20 % 1017,1 hPa 0,0 l/m 12,0 km/h (2 Bft) 0 min 0 min 10,0 km/h (2 Bft)
14.09.2010 15:38 22,2 C 18,8 C 1,8 UV-I 0,5 C 60 % 72 % 14 % 1017,1 hPa 0,0 l/m 12,4 km/h (3 Bft) 0 min 0 min 11,9 km/h (2 Bft)
14.09.2010 15:40 22,1 C 18,7 C 1,8 UV-I 0,6 C 60 % 72 % 17 % 1017,1 hPa 0,0 l/m 11,6 km/h (2 Bft) 0 min 0 min 11,9 km/h (2 Bft)
14.09.2010 15:42 22,2 C 18,6 C 1,8 UV-I 0,6 C 59 % 73 % 17 % 1017,1 hPa 0,0 l/m 10,8 km/h (2 Bft) 0 min 0 min 9,3 km/h (2 Bft)
14.09.2010 15:44 22,2 C 18,7 C 1,8 UV-I 0,5 C 59 % 73 % 14 % 1017,1 hPa 0,0 l/m 9,6 km/h (2 Bft) 0 min 0 min 8,0 km/h (2 Bft)
14.09.2010 15:46 22,2 C 18,7 C 1,8 UV-I 0,5 C 59 % 73 % 14 % 1016,6 hPa 0,0 l/m 9,6 km/h (2 Bft) 0 min 0 min 13,8 km/h (3 Bft)
14.09.2010 15:48 22,2 C 18,6 C 1,8 UV-I 0,5 C 59 % 73 % 14 % 1016,6 hPa 0,0 l/m 10,4 km/h (2 Bft) 0 min 0 min 13,8 km/h (3 Bft)
14.09.2010 15:50 22,2 C 18,7 C 1,8 UV-I 0,5 C 59 % 73 % 14 % 1016,6 hPa 0,0 l/m 9,6 km/h (2 Bft) 0 min 0 min 13,5 km/h (3 Bft)
14.09.2010 15:52 22,2 C 18,6 C 1,8 UV-I 0,5 C 59 % 73 % 14 % 1016,6 hPa 0,0 l/m 9,6 km/h (2 Bft) 0 min 0 min 7,7 km/h (2 Bft)
14.09.2010 15:54 22,2 C 18,6 C 1,8 UV-I 0,6 C 59 % 73 % 17 % 1016,6 hPa 0,0 l/m 9,6 km/h (2 Bft) 0 min 0 min 7,7 km/h (2 Bft)
14.09.2010 15:56 22,2 C 18,6 C 1,8 UV-I 0,5 C 59 % 73 % 14 % 1016,6 hPa 0,0 l/m 10,0 km/h (2 Bft) 0 min 0 min 20,9 km/h (4 Bft)
14.09.2010 15:58 22,2 C 18,7 C 1,4 UV-I 0,4 C 59 % 73 % 11 % 1016,6 hPa 0,0 l/m 9,6 km/h (2 Bft) 0 min 0 min 20,9 km/h (4 Bft)
14.09.2010 16:00 22,2 C 18,7 C 1,4 UV-I 0,3 C 59 % 74 % 9 % 1016,6 hPa 0,0 l/m 8,4 km/h (2 Bft) 0 min 0 min 8,0 km/h (2 Bft)
14.09.2010 16:02 22,2 C 18,6 C 1,4 UV-I 0,4 C 59 % 74 % 11 % 1016,6 hPa 0,0 l/m 8,4 km/h (2 Bft) 0 min 0 min 14,2 km/h (3 Bft)
14.09.2010 16:04 22,2 C 18,6 C 1,4 UV-I 0,3 C 59 % 74 % 9 % 1016,6 hPa 0,0 l/m 8,4 km/h (2 Bft) 0 min 0 min 14,2 km/h (3 Bft)
14.09.2010 16:06 22,2 C 18,5 C 1,4 UV-I 0,3 C 59 % 74 % 9 % 1016,4 hPa 0,0 l/m 8,0 km/h (2 Bft) 0 min 0 min 8,7 km/h (2 Bft)
14.09.2010 16:08 22,2 C 18,5 C 1,2 UV-I 0,3 C 59 % 74 % 9 % 1016,4 hPa 0,0 l/m 6,4 km/h (2 Bft) 0 min 0 min 8,7 km/h (2 Bft)
14.09.2010 16:10 22,2 C 18,5 C 1,2 UV-I 0,3 C 59 % 74 % 9 % 1016,4 hPa 0,0 l/m 6,4 km/h (2 Bft) 0 min 0 min 10,6 km/h (2 Bft)
14.09.2010 16:12 22,2 C 18,5 C 1,2 UV-I 0,2 C 59 % 74 % 6 % 1016,4 hPa 0,0 l/m 7,2 km/h (2 Bft) 0 min 0 min 13,8 km/h (3 Bft)
14.09.2010 16:14 22,2 C 18,5 C 1,0 UV-I 0,2 C 59 % 74 % 6 % 1016,4 hPa 0,0 l/m 8,0 km/h (2 Bft) 0 min 0 min 19,3 km/h (3 Bft)
14.09.2010 16:16 22,1 C 18,4 C 1,0 UV-I 0,2 C 59 % 74 % 6 % 1016,4 hPa 0,0 l/m 8,0 km/h (2 Bft) 0 min 0 min 19,3 km/h (3 Bft)
14.09.2010 16:18 22,1 C 18,5 C 1,3 UV-I 0,1 C 59 % 74 % 3 % 1016,4 hPa 0,0 l/m 8,0 km/h (2 Bft) 0 min 0 min 8,7 km/h (2 Bft)
14.09.2010 16:20 22,2 C 18,5 C 1,3 UV-I 0,1 C 59 % 74 % 3 % 1016,4 hPa 0,0 l/m 8,8 km/h (2 Bft) 0 min 0 min 9,7 km/h (2 Bft)
14.09.2010 16:22 22,1 C 18,5 C 1,3 UV-I 0,1 C 59 % 74 % 3 % 1016,4 hPa 0,0 l/m 8,4 km/h (2 Bft) 0 min 0 min 18,7 km/h (3 Bft)
14.09.2010 16:24 22,1 C 18,5 C 1,4 UV-I 0,2 C 59 % 74 % 6 % 1016,4 hPa 0,0 l/m 8,8 km/h (2 Bft) 0 min 0 min 18,7 km/h (3 Bft)
14.09.2010 16:26 22,1 C 18,5 C 1,4 UV-I 0,2 C 59 % 74 % 6 % 1016,6 hPa 0,0 l/m 8,4 km/h (2 Bft) 0 min 0 min 13,2 km/h (3 Bft)
14.09.2010 16:28 22,1 C 18,5 C 1,4 UV-I 0,2 C 59 % 74 % 6 % 1016,6 hPa 0,0 l/m 8,4 km/h (2 Bft) 0 min 0 min 13,2 km/h (3 Bft)
14.09.2010 16:30 22,1 C 18,5 C 1,4 UV-I 0,3 C 59 % 74 % 9 % 1016,6 hPa 0,0 l/m 8,8 km/h (2 Bft) 0 min 0 min 10,6 km/h (2 Bft)
14.09.2010 16:32 22,1 C 18,5 C 1,4 UV-I 0,3 C 59 % 74 % 9 % 1016,6 hPa 0,0 l/m 8,8 km/h (2 Bft) 0 min 0 min 7,7 km/h (2 Bft)
14.09.2010 16:34 22,1 C 18,4 C 1,3 UV-I 0,3 C 59 % 74 % 9 % 1016,6 hPa 0,0 l/m 8,4 km/h (2 Bft) 0 min 0 min 15,1 km/h (3 Bft)
14.09.2010 16:36 22,1 C 18,5 C 1,3 UV-I 0,2 C 59 % 74 % 6 % 1016,6 hPa 0,0 l/m 8,0 km/h (2 Bft) 0 min 0 min 15,1 km/h (3 Bft)
14.09.2010 16:38 22,1 C 18,4 C 1,1 UV-I 0,2 C 59 % 74 % 6 % 1016,6 hPa 0,0 l/m 8,8 km/h (2 Bft) 0 min 0 min 14,2 km/h (3 Bft)
14.09.2010 16:40 22,1 C 18,4 C 1,1 UV-I 0,2 C 59 % 74 % 6 % 1016,6 hPa 0,0 l/m 8,8 km/h (2 Bft) 0 min 0 min 10,0 km/h (2 Bft)
14.09.2010 16:42 22,1 C 18,5 C 1,1 UV-I 0,1 C 59 % 74 % 3 % 1016,6 hPa 0,0 l/m 8,4 km/h (2 Bft) 0 min 0 min 3,9 km/h (1 Bft)
14.09.2010 16:44 22,1 C 18,4 C 1,0 UV-I 0,1 C 59 % 74 % 3 % 1016,6 hPa 0,0 l/m 8,4 km/h (2 Bft) 0 min 0 min 14,5 km/h (3 Bft)
14.09.2010 16:46 22,1 C 18,5 C 1,0 UV-I 0,0 C 59 % 74 % 0 % 1016,4 hPa 0,0 l/m 7,6 km/h (2 Bft) 0 min 0 min 14,5 km/h (3 Bft)
14.09.2010 16:48 22,1 C 18,4 C 1,0 UV-I 0,0 C 59 % 74 % 0 % 1016,4 hPa 0,0 l/m 7,2 km/h (2 Bft) 0 min 0 min 13,2 km/h (3 Bft)
14.09.2010 16:50 22,0 C 18,5 C 1,0 UV-I 0,0 C 59 % 74 % 0 % 1016,4 hPa 0,0 l/m 6,4 km/h (2 Bft) 0 min 0 min 9,3 km/h (2 Bft)
14.09.2010 16:52 22,1 C 18,5 C 1,0 UV-I 0,0 C 59 % 74 % 0 % 1016,4 hPa 0,0 l/m 6,8 km/h (2 Bft) 0 min 0 min 11,3 km/h (2 Bft)
14.09.2010 16:54 22,0 C 18,4 C 0,9 UV-I 0,0 C 59 % 74 % 0 % 1016,4 hPa 0,0 l/m 7,2 km/h (2 Bft) 0 min 0 min 11,3 km/h (2 Bft)
14.09.2010 16:56 22,0 C 18,4 C 0,9 UV-I 0,0 C 59 % 74 % 0 % 1016,4 hPa 0,0 l/m 7,6 km/h (2 Bft) 0 min 0 min 12,2 km/h (2 Bft)
14.09.2010 16:58 22,0 C 18,4 C 1,0 UV-I 0,0 C 59 % 74 % 0 % 1016,4 hPa 0,0 l/m 7,6 km/h (2 Bft) 0 min 0 min 12,2 km/h (2 Bft)
14.09.2010 17:00 22,0 C 18,4 C 1,0 UV-I 0,0 C 59 % 74 % 0 % 1016,4 hPa 0,0 l/m 8,4 km/h (2 Bft) 0 min 0 min 10,6 km/h (2 Bft)
14.09.2010 17:02 22,0 C 18,5 C 1,0 UV-I 0,0 C 59 % 74 % 0 % 1016,4 hPa 0,0 l/m 8,8 km/h (2 Bft) 0 min 0 min 10,6 km/h (2 Bft)
14.09.2010 17:04 22,0 C 18,5 C 1,3 UV-I 0,0 C 59 % 74 % 0 % 1016,4 hPa 0,0 l/m 8,4 km/h (2 Bft) 0 min 0 min 10,6 km/h (2 Bft)
14.09.2010 17:06 22,0 C 18,5 C 1,3 UV-I 0,0 C 59 % 74 % 0 % 1015,9 hPa 0,0 l/m 8,8 km/h (2 Bft) 0 min 0 min 8,4 km/h (2 Bft)
14.09.2010 17:08 22,0 C 18,4 C 1,5 UV-I 0,2 C 59 % 74 % 6 % 1015,9 hPa 0,0 l/m 8,4 km/h (2 Bft) 0 min 0 min 8,4 km/h (2 Bft)
14.09.2010 17:10 22,0 C 18,5 C 1,5 UV-I 0,1 C 59 % 74 % 3 % 1015,9 hPa 0,0 l/m 7,6 km/h (2 Bft) 0 min 0 min 7,1 km/h (2 Bft)
14.09.2010 17:12 22,0 C 18,4 C 1,5 UV-I 0,3 C 59 % 75 % 9 % 1015,9 hPa 0,0 l/m 6,4 km/h (2 Bft) 0 min 0 min 7,1 km/h (2 Bft)
14.09.2010 17:14 22,0 C 18,5 C 1,6 UV-I 0,3 C 59 % 74 % 9 % 1015,9 hPa 0,0 l/m 7,6 km/h (2 Bft) 0 min 0 min 8,4 km/h (2 Bft)
14.09.2010 17:16 22,0 C 18,5 C 1,6 UV-I 0,3 C 59 % 74 % 9 % 1015,9 hPa 0,0 l/m 7,6 km/h (2 Bft) 0 min 0 min 9,0 km/h (2 Bft)
14.09.2010 17:18 22,0 C 18,6 C 2,0 UV-I 0,4 C 59 % 74 % 11 % 1015,9 hPa 0,0 l/m 7,6 km/h (2 Bft) 0 min 0 min 9,0 km/h (2 Bft)
14.09.2010 17:20 22,0 C 18,7 C 2,0 UV-I 0,4 C 59 % 75 % 11 % 1015,9 hPa 0,0 l/m 7,6 km/h (2 Bft) 0 min 0 min 7,4 km/h (2 Bft)
14.09.2010 17:22 22,0 C 18,7 C 2,0 UV-I 0,5 C 59 % 75 % 14 % 1015,9 hPa 0,0 l/m 8,0 km/h (2 Bft) 0 min 0 min 12,2 km/h (2 Bft)
14.09.2010 17:24 22,0 C 18,7 C 2,1 UV-I 0,6 C 59 % 74 % 17 % 1015,9 hPa 0,0 l/m 8,8 km/h (2 Bft) 0 min 0 min 12,2 km/h (2 Bft)
14.09.2010 17:26 22,0 C 18,7 C 2,1 UV-I 0,8 C 59 % 75 % 23 % 1015,9 hPa 0,0 l/m 8,4 km/h (2 Bft) 0 min 0 min 10,9 km/h (2 Bft)
14.09.2010 17:28 22,0 C 18,7 C 1,9 UV-I 0,8 C 59 % 74 % 23 % 1015,9 hPa 0,0 l/m 8,4 km/h (2 Bft) 0 min 0 min 11,6 km/h (2 Bft)
14.09.2010 17:30 22,0 C 18,9 C 1,9 UV-I 0,7 C 59 % 74 % 20 % 1015,9 hPa 0,0 l/m 10,0 km/h (2 Bft) 0 min 0 min 16,1 km/h (3 Bft)
14.09.2010 17:32 22,0 C 18,9 C 1,9 UV-I 0,8 C 59 % 74 % 23 % 1015,9 hPa 0,0 l/m 10,8 km/h (2 Bft) 0 min 0 min 16,1 km/h (3 Bft)
14.09.2010 17:34 22,0 C 18,9 C 2,2 UV-I 0,9 C 59 % 74 % 26 % 1015,9 hPa 0,0 l/m 10,0 km/h (2 Bft) 0 min 0 min 8,4 km/h (2 Bft)
14.09.2010 17:36 22,0 C 18,9 C 2,2 UV-I 1,0 C 59 % 74 % 29 % 1015,9 hPa 0,0 l/m 9,2 km/h (2 Bft) 0 min 0 min 8,0 km/h (2 Bft)
14.09.2010 17:38 22,0 C 18,9 C 2,0 UV-I 1,0 C 59 % 74 % 29 % 1015,9 hPa 0,0 l/m 10,0 km/h (2 Bft) 0 min 0 min 6,8 km/h (2 Bft)
14.09.2010 17:40 22,0 C 18,9 C 2,0 UV-I 1,0 C 59 % 73 % 29 % 1015,9 hPa 0,0 l/m 9,6 km/h (2 Bft) 0 min 0 min 9,3 km/h (2 Bft)
14.09.2010 17:42 22,0 C 18,9 C 2,0 UV-I 1,0 C 59 % 73 % 29 % 1015,9 hPa 0,0 l/m 8,4 km/h (2 Bft) 0 min 0 min 9,3 km/h (2 Bft)
14.09.2010 17:44 22,1 C 18,8 C 1,8 UV-I 1,1 C 59 % 73 % 31 % 1015,9 hPa 0,0 l/m 9,2 km/h (2 Bft) 0 min 0 min 12,2 km/h (2 Bft)
14.09.2010 17:46 22,1 C 18,9 C 1,8 UV-I 0,9 C 59 % 73 % 26 % 1015,7 hPa 0,0 l/m 10,0 km/h (2 Bft) 0 min 0 min 12,2 km/h (2 Bft)
14.09.2010 17:48 22,1 C 18,9 C 1,4 UV-I 0,8 C 59 % 74 % 23 % 1015,7 hPa 0,0 l/m 9,6 km/h (2 Bft) 0 min 0 min 10,3 km/h (2 Bft)
14.09.2010 17:50 22,1 C 18,9 C 1,4 UV-I 0,8 C 59 % 74 % 23 % 1015,7 hPa 0,0 l/m 9,2 km/h (2 Bft) 0 min 0 min 10,3 km/h (2 Bft)
14.09.2010 17:52 22,1 C 18,9 C 1,4 UV-I 0,7 C 59 % 73 % 20 % 1015,7 hPa 0,0 l/m 10,0 km/h (2 Bft) 0 min 0 min 21,9 km/h (4 Bft)
14.09.2010 17:54 22,1 C 18,9 C 1,3 UV-I 0,6 C 59 % 74 % 17 % 1015,7 hPa 0,0 l/m 10,0 km/h (2 Bft) 0 min 0 min 21,9 km/h (4 Bft)
14.09.2010 17:56 22,1 C 18,9 C 1,3 UV-I 0,6 C 59 % 74 % 17 % 1015,7 hPa 0,0 l/m 9,6 km/h (2 Bft) 0 min 0 min 10,9 km/h (2 Bft)
14.09.2010 17:58 22,1 C 18,9 C 1,1 UV-I 0,5 C 59 % 74 % 14 % 1015,7 hPa 0,0 l/m 9,6 km/h (2 Bft) 0 min 0 min 10,9 km/h (2 Bft)
14.09.2010 18:00 22,1 C 18,9 C 1,1 UV-I 0,4 C 59 % 74 % 11 % 1015,7 hPa 0,0 l/m 9,2 km/h (2 Bft) 0 min 0 min 9,7 km/h (2 Bft)
14.09.2010 18:02 22,1 C 18,9 C 1,1 UV-I 0,4 C 59 % 74 % 11 % 1015,7 hPa 0,0 l/m 10,4 km/h (2 Bft) 0 min 0 min 21,9 km/h (4 Bft)
14.09.2010 18:04 22,1 C 18,9 C 0,8 UV-I 0,3 C 59 % 74 % 9 % 1015,7 hPa 0,0 l/m 9,6 km/h (2 Bft) 0 min 0 min 21,9 km/h (4 Bft)
14.09.2010 18:06 22,1 C 18,8 C 0,8 UV-I 0,3 C 59 % 74 % 9 % 1015,0 hPa 0,0 l/m 10,0 km/h (2 Bft) 0 min 0 min 12,2 km/h (2 Bft)
14.09.2010 18:08 22,1 C 18,9 C 0,7 UV-I 0,1 C 59 % 74 % 3 % 1015,0 hPa 0,0 l/m 10,4 km/h (2 Bft) 0 min 0 min 12,2 km/h (2 Bft)
14.09.2010 18:10 22,1 C 18,8 C 0,7 UV-I 0,2 C 59 % 74 % 6 % 1015,0 hPa 0,0 l/m 10,8 km/h (2 Bft) 0 min 0 min 8,7 km/h (2 Bft)
14.09.2010 18:12 22,1 C 18,8 C 0,7 UV-I 0,2 C 59 % 74 % 6 % 1015,0 hPa 0,0 l/m 11,2 km/h (2 Bft) 0 min 0 min 9,3 km/h (2 Bft)
14.09.2010 18:14 22,1 C 18,8 C 0,7 UV-I 0,1 C 59 % 75 % 3 % 1015,0 hPa 0,0 l/m 9,6 km/h (2 Bft) 0 min 0 min 13,5 km/h (3 Bft)
14.09.2010 18:16 22,0 C 18,8 C 0,7 UV-I 0,1 C 59 % 75 % 3 % 1015,0 hPa 0,0 l/m 9,6 km/h (2 Bft) 0 min 0 min 13,5 km/h (3 Bft)
14.09.2010 18:18 22,1 C 18,8 C 0,7 UV-I 0,1 C 59 % 75 % 3 % 1015,0 hPa 0,0 l/m 8,8 km/h (2 Bft) 0 min 0 min 10,9 km/h (2 Bft)
14.09.2010 18:20 22,0 C 18,8 C 0,7 UV-I 0,1 C 59 % 75 % 3 % 1015,0 hPa 0,0 l/m 8,8 km/h (2 Bft) 0 min 0 min 15,4 km/h (3 Bft)
14.09.2010 18:22 22,0 C 18,9 C 0,7 UV-I 0,0 C 59 % 74 % 0 % 1015,0 hPa 0,0 l/m 9,2 km/h (2 Bft) 0 min 0 min 20,9 km/h (4 Bft)
14.09.2010 18:24 22,0 C 18,8 C 0,8 UV-I 0,1 C 60 % 75 % 3 % 1015,0 hPa 0,0 l/m 9,6 km/h (2 Bft) 0 min 0 min 20,9 km/h (4 Bft)
14.09.2010 18:26 22,1 C 18,8 C 0,8 UV-I 0,1 C 59 % 75 % 3 % 1015,1 hPa 0,0 l/m 9,2 km/h (2 Bft) 0 min 0 min 9,0 km/h (2 Bft)
14.09.2010 18:28 22,0 C 18,8 C 1,0 UV-I 0,2 C 59 % 75 % 6 % 1015,1 hPa 0,0 l/m 10,0 km/h (2 Bft) 0 min 0 min 10,3 km/h (2 Bft)
14.09.2010 18:30 22,0 C 18,9 C 1,0 UV-I 0,1 C 60 % 75 % 3 % 1015,1 hPa 0,0 l/m 10,4 km/h (2 Bft) 0 min 0 min 15,4 km/h (3 Bft)
14.09.2010 18:32 22,0 C 18,9 C 1,0 UV-I 0,1 C 60 % 75 % 3 % 1015,1 hPa 0,0 l/m 10,4 km/h (2 Bft) 0 min 0 min 15,4 km/h (3 Bft)
14.09.2010 18:34 22,0 C 18,9 C 0,9 UV-I 0,1 C 60 % 75 % 3 % 1015,1 hPa 0,0 l/m 11,2 km/h (2 Bft) 0 min 0 min 18,3 km/h (3 Bft)
14.09.2010 18:36 22,0 C 18,9 C 0,9 UV-I 0,1 C 60 % 75 % 3 % 1015,1 hPa 0,0 l/m 11,2 km/h (2 Bft) 0 min 0 min 18,3 km/h (3 Bft)
14.09.2010 18:38 22,0 C 18,9 C 0,8 UV-I 0,1 C 60 % 75 % 3 % 1015,1 hPa 0,0 l/m 11,2 km/h (2 Bft) 0 min 0 min 12,9 km/h (3 Bft)
14.09.2010 18:40 22,0 C 18,9 C 0,8 UV-I 0,1 C 60 % 75 % 3 % 1015,1 hPa 0,0 l/m 10,4 km/h (2 Bft) 0 min 0 min 12,9 km/h (3 Bft)
14.09.2010 18:42 22,0 C 18,9 C 0,8 UV-I 0,1 C 60 % 75 % 3 % 1015,1 hPa 0,0 l/m 10,4 km/h (2 Bft) 0 min 0 min 10,3 km/h (2 Bft)
14.09.2010 18:44 22,0 C 18,9 C 0,5 UV-I 0,1 C 60 % 75 % 3 % 1015,1 hPa 0,0 l/m 9,6 km/h (2 Bft) 0 min 0 min 12,9 km/h (3 Bft)
14.09.2010 18:46 22,0 C 18,8 C 0,5 UV-I 0,1 C 60 % 75 % 3 % 1014,3 hPa 0,0 l/m 10,0 km/h (2 Bft) 0 min 0 min 12,9 km/h (3 Bft)
14.09.2010 18:48 22,0 C 18,8 C 0,5 UV-I 0,0 C 60 % 75 % 0 % 1014,3 hPa 0,0 l/m 10,0 km/h (2 Bft) 0 min 0 min 12,9 km/h (3 Bft)
14.09.2010 18:50 22,0 C 18,8 C 0,5 UV-I 0,0 C 60 % 75 % 0 % 1014,3 hPa 0,0 l/m 9,6 km/h (2 Bft) 0 min 0 min 7,7 km/h (2 Bft)
14.09.2010 18:52 22,0 C 18,9 C 0,5 UV-I 0,0 C 60 % 75 % 0 % 1014,3 hPa 0,0 l/m 9,6 km/h (2 Bft) 0 min 0 min 7,7 km/h (2 Bft)
14.09.2010 18:54 22,0 C 18,9 C 0,5 UV-I 0,0 C 60 % 75 % 0 % 1014,3 hPa 0,0 l/m 10,0 km/h (2 Bft) 0 min 0 min 12,9 km/h (3 Bft)
14.09.2010 18:56 22,0 C 18,9 C 0,5 UV-I 0,0 C 60 % 75 % 0 % 1014,3 hPa 0,0 l/m 10,0 km/h (2 Bft) 0 min 0 min 12,9 km/h (3 Bft)
14.09.2010 18:58 22,0 C 18,8 C 0,4 UV-I 0,0 C 60 % 75 % 0 % 1014,3 hPa 0,0 l/m 9,6 km/h (2 Bft) 0 min 0 min 20,9 km/h (4 Bft)
14.09.2010 19:00 22,0 C 18,8 C 0,4 UV-I 0,0 C 60 % 75 % 0 % 1014,3 hPa 0,0 l/m 10,0 km/h (2 Bft) 0 min 0 min 20,9 km/h (4 Bft)
14.09.2010 19:02 22,0 C 18,8 C 0,4 UV-I 0,0 C 60 % 75 % 0 % 1014,3 hPa 0,0 l/m 10,4 km/h (2 Bft) 0 min 0 min 29,0 km/h (5 Bft)
14.09.2010 19:04 22,0 C 18,9 C 0,4 UV-I 0,0 C 60 % 75 % 0 % 1014,3 hPa 0,0 l/m 9,6 km/h (2 Bft) 0 min 0 min 29,0 km/h (5 Bft)
14.09.2010 19:06 22,0 C 18,9 C 0,4 UV-I 0,0 C 60 % 75 % 0 % 1014,3 hPa 0,0 l/m 8,8 km/h (2 Bft) 0 min 0 min 4,8 km/h (1 Bft)
14.09.2010 19:08 22,0 C 18,9 C 0,4 UV-I 0,0 C 60 % 75 % 0 % 1014,3 hPa 0,0 l/m 9,2 km/h (2 Bft) 0 min 0 min 10,0 km/h (2 Bft)
14.09.2010 19:10 22,0 C 18,8 C 0,4 UV-I 0,0 C 60 % 75 % 0 % 1014,3 hPa 0,0 l/m 9,6 km/h (2 Bft) 0 min 0 min 10,6 km/h (2 Bft)
14.09.2010 19:12 22,0 C 18,9 C 0,4 UV-I 0,0 C 60 % 75 % 0 % 1014,3 hPa 0,0 l/m 9,6 km/h (2 Bft) 0 min 0 min 10,6 km/h (2 Bft)
14.09.2010 19:14 21,9 C 18,9 C 0,3 UV-I 0,0 C 60 % 75 % 0 % 1014,3 hPa 0,0 l/m 10,0 km/h (2 Bft) 0 min 0 min 12,6 km/h (3 Bft)
14.09.2010 19:16 22,0 C 18,9 C 0,3 UV-I 0,0 C 60 % 75 % 0 % 1014,3 hPa 0,0 l/m 10,8 km/h (2 Bft) 0 min 0 min 13,8 km/h (3 Bft)
14.09.2010 19:18 21,9 C 18,9 C 0,3 UV-I 0,0 C 60 % 75 % 0 % 1014,3 hPa 0,0 l/m 10,0 km/h (2 Bft) 0 min 0 min 13,8 km/h (3 Bft)
14.09.2010 19:20 21,9 C 18,9 C 0,3 UV-I 0,0 C 60 % 75 % 0 % 1014,3 hPa 0,0 l/m 9,2 km/h (2 Bft) 0 min 0 min 8,7 km/h (2 Bft)
14.09.2010 19:22 21,9 C 18,9 C 0,3 UV-I 0,0 C 60 % 75 % 0 % 1014,3 hPa 0,0 l/m 10,0 km/h (2 Bft) 0 min 0 min 18,7 km/h (3 Bft)
14.09.2010 19:24 21,9 C 18,9 C 0,3 UV-I 0,0 C 60 % 75 % 0 % 1014,3 hPa 0,0 l/m 10,4 km/h (2 Bft) 0 min 0 min 20,3 km/h (4 Bft)
14.09.2010 19:26 21,9 C 18,9 C 0,3 UV-I 0,0 C 60 % 75 % 0 % 1013,9 hPa 0,0 l/m 10,8 km/h (2 Bft) 0 min 0 min 20,3 km/h (4 Bft)
14.09.2010 19:28 21,9 C 18,8 C 0,3 UV-I 0,0 C 60 % 75 % 0 % 1013,9 hPa 0,0 l/m 11,6 km/h (2 Bft) 0 min 0 min 14,8 km/h (3 Bft)
14.09.2010 19:30 21,9 C 18,8 C 0,3 UV-I 0,0 C 60 % 75 % 0 % 1013,9 hPa 0,0 l/m 12,8 km/h (3 Bft) 0 min 0 min 17,4 km/h (3 Bft)
14.09.2010 19:32 21,9 C 18,9 C 0,3 UV-I 0,0 C 60 % 75 % 0 % 1013,9 hPa 0,0 l/m 12,8 km/h (3 Bft) 0 min 0 min 17,4 km/h (3 Bft)
14.09.2010 19:34 21,9 C 18,9 C 0,3 UV-I 0,0 C 60 % 75 % 0 % 1013,9 hPa 0,0 l/m 12,8 km/h (3 Bft) 0 min 0 min 20,3 km/h (4 Bft)
14.09.2010 19:36 21,9 C 18,9 C 0,3 UV-I 0,0 C 61 % 76 % 0 % 1013,9 hPa 0,0 l/m 10,8 km/h (2 Bft) 0 min 0 min 20,3 km/h (4 Bft)
14.09.2010 19:38 21,9 C 18,8 C 0,2 UV-I 0,0 C 61 % 76 % 0 % 1013,9 hPa 0,0 l/m 10,8 km/h (2 Bft) 0 min 0 min 18,3 km/h (3 Bft)
14.09.2010 19:40 21,9 C 18,8 C 0,2 UV-I 0,0 C 61 % 76 % 0 % 1013,9 hPa 0,0 l/m 10,8 km/h (2 Bft) 0 min 0 min 18,3 km/h (3 Bft)
14.09.2010 19:42 21,8 C 18,8 C 0,2 UV-I 0,0 C 61 % 76 % 0 % 1013,9 hPa 0,0 l/m 10,8 km/h (2 Bft) 0 min 0 min 14,8 km/h (3 Bft)
14.09.2010 19:44 21,8 C 18,8 C 0,2 UV-I 0,0 C 61 % 76 % 0 % 1013,9 hPa 0,0 l/m 10,8 km/h (2 Bft) 0 min 0 min 14,8 km/h (3 Bft)
14.09.2010 19:46 21,8 C 18,7 C 0,2 UV-I 0,0 C 61 % 76 % 0 % 1014,1 hPa 0,0 l/m 11,6 km/h (2 Bft) 0 min 0 min 14,8 km/h (3 Bft)
14.09.2010 19:48 21,8 C 18,7 C 0,2 UV-I 0,0 C 61 % 76 % 0 % 1014,1 hPa 0,0 l/m 12,8 km/h (3 Bft) 0 min 0 min 17,1 km/h (3 Bft)
14.09.2010 19:50 21,8 C 18,7 C 0,2 UV-I 0,0 C 61 % 76 % 0 % 1014,1 hPa 0,0 l/m 12,4 km/h (3 Bft) 0 min 0 min 17,1 km/h (3 Bft)
14.09.2010 19:52 21,8 C 18,6 C 0,2 UV-I 0,0 C 61 % 76 % 0 % 1014,1 hPa 0,0 l/m 11,6 km/h (2 Bft) 0 min 0 min 7,7 km/h (2 Bft)
14.09.2010 19:54 21,8 C 18,6 C 0,2 UV-I 0,0 C 61 % 76 % 0 % 1014,1 hPa 0,0 l/m 12,0 km/h (2 Bft) 0 min 0 min 20,3 km/h (4 Bft)
14.09.2010 19:56 21,8 C 18,6 C 0,2 UV-I 0,0 C 61 % 76 % 0 % 1014,1 hPa 0,0 l/m 11,6 km/h (2 Bft) 0 min 0 min 20,3 km/h (4 Bft)
14.09.2010 19:58 21,8 C 18,6 C 0,2 UV-I 0,0 C 61 % 76 % 0 % 1014,1 hPa 0,0 l/m 11,2 km/h (2 Bft) 0 min 0 min 8,7 km/h (2 Bft)
14.09.2010 20:00 21,8 C 18,6 C 0,0 UV-I 0,0 C 61 % 76 % 0 % 1014,1 hPa 0,0 l/m 10,4 km/h (2 Bft) 0 min 0 min 8,7 km/h (2 Bft)
14.09.2010 20:02 21,8 C 18,6 C 0,0 UV-I 0,0 C 61 % 76 % 0 % 1014,1 hPa 0,0 l/m 11,2 km/h (2 Bft) 0 min 0 min 16,7 km/h (3 Bft)
14.09.2010 20:04 21,8 C 18,7 C 0,0 UV-I 0,0 C 61 % 76 % 0 % 1014,1 hPa 0,0 l/m 11,6 km/h (2 Bft) 0 min 0 min 16,7 km/h (3 Bft)
14.09.2010 20:06 21,8 C 18,6 C 0,0 UV-I 0,0 C 61 % 76 % 0 % 1013,6 hPa 0,0 l/m 11,6 km/h (2 Bft) 0 min 0 min 11,6 km/h (2 Bft)
14.09.2010 20:08 21,7 C 18,7 C 0,0 UV-I 0,0 C 61 % 76 % 0 % 1013,6 hPa 0,0 l/m 11,2 km/h (2 Bft) 0 min 0 min 11,6 km/h (2 Bft)
14.09.2010 20:10 21,7 C 18,7 C 0,0 UV-I 0,0 C 61 % 77 % 0 % 1013,6 hPa 0,0 l/m 10,8 km/h (2 Bft) 0 min 0 min 11,6 km/h (2 Bft)
14.09.2010 20:12 21,7 C 18,7 C 0,0 UV-I 0,0 C 61 % 77 % 0 % 1013,6 hPa 0,0 l/m 10,0 km/h (2 Bft) 0 min 0 min 10,0 km/h (2 Bft)
14.09.2010 20:14 21,7 C 18,7 C 0,0 UV-I 0,0 C 61 % 77 % 0 % 1013,6 hPa 0,0 l/m 9,6 km/h (2 Bft) 0 min 0 min 12,6 km/h (3 Bft)
14.09.2010 20:16 21,7 C 18,7 C 0,0 UV-I 0,0 C 61 % 77 % 0 % 1013,6 hPa 0,0 l/m 10,0 km/h (2 Bft) 0 min 0 min 16,4 km/h (3 Bft)
14.09.2010 20:18 21,6 C 18,7 C 0,0 UV-I 0,0 C 61 % 77 % 0 % 1013,6 hPa 0,0 l/m 9,6 km/h (2 Bft) 0 min 0 min 16,4 km/h (3 Bft)
14.09.2010 20:20 21,6 C 18,7 C 0,0 UV-I 0,0 C 61 % 77 % 0 % 1013,6 hPa 0,0 l/m 10,8 km/h (2 Bft) 0 min 0 min 12,6 km/h (3 Bft)
14.09.2010 20:22 21,6 C 18,6 C 0,0 UV-I 0,0 C 61 % 77 % 0 % 1013,6 hPa 0,0 l/m 11,2 km/h (2 Bft) 0 min 0 min 13,2 km/h (3 Bft)
14.09.2010 20:24 21,6 C 18,6 C 0,0 UV-I 0,0 C 61 % 77 % 0 % 1013,6 hPa 0,0 l/m 12,0 km/h (2 Bft) 0 min 0 min 13,2 km/h (3 Bft)
14.09.2010 20:26 21,6 C 18,7 C 0,0 UV-I 0,0 C 61 % 77 % 0 % 1013,5 hPa 0,0 l/m 12,4 km/h (3 Bft) 0 min 0 min 15,8 km/h (3 Bft)
14.09.2010 20:28 21,6 C 18,6 C 0,1 UV-I 0,0 C 61 % 77 % 0 % 1013,5 hPa 0,0 l/m 12,0 km/h (2 Bft) 0 min 0 min 15,8 km/h (3 Bft)
14.09.2010 20:30 21,5 C 18,6 C 0,1 UV-I 0,0 C 61 % 77 % 0 % 1013,5 hPa 0,0 l/m 12,0 km/h (2 Bft) 0 min 0 min 14,8 km/h (3 Bft)
14.09.2010 20:32 21,5 C 18,7 C 0,1 UV-I 0,0 C 61 % 77 % 0 % 1013,5 hPa 0,0 l/m 10,8 km/h (2 Bft) 0 min 0 min 10,6 km/h (2 Bft)
14.09.2010 20:34 21,4 C 18,6 C 0,0 UV-I 0,0 C 61 % 77 % 0 % 1013,5 hPa 0,0 l/m 10,4 km/h (2 Bft) 0 min 0 min 10,6 km/h (2 Bft)
14.09.2010 20:36 21,4 C 18,6 C 0,0 UV-I 0,0 C 61 % 76 % 0 % 1013,5 hPa 0,0 l/m 11,6 km/h (2 Bft) 0 min 0 min 17,1 km/h (3 Bft)
14.09.2010 20:38 21,4 C 18,6 C 0,0 UV-I 0,0 C 62 % 77 % 0 % 1013,5 hPa 0,0 l/m 10,8 km/h (2 Bft) 0 min 0 min 17,1 km/h (3 Bft)
14.09.2010 20:40 21,4 C 18,6 C 0,0 UV-I 0,0 C 62 % 76 % 0 % 1013,5 hPa 0,0 l/m 10,8 km/h (2 Bft) 0 min 0 min 12,9 km/h (3 Bft)
14.09.2010 20:42 21,2 C 18,7 C 0,0 UV-I 0,0 C 62 % 76 % 0 % 1013,5 hPa 0,0 l/m 11,6 km/h (2 Bft) 0 min 0 min 12,6 km/h (3 Bft)
14.09.2010 20:44 21,2 C 18,6 C 0,0 UV-I 0,0 C 62 % 76 % 0 % 1013,5 hPa 0,0 l/m 12,0 km/h (2 Bft) 0 min 0 min 10,9 km/h (2 Bft)
14.09.2010 20:46 21,2 C 18,6 C 0,0 UV-I 0,0 C 62 % 76 % 0 % 1013,3 hPa 0,0 l/m 10,8 km/h (2 Bft) 0 min 0 min 12,9 km/h (3 Bft)
14.09.2010 20:48 21,3 C 18,7 C 0,0 UV-I 0,0 C 62 % 76 % 0 % 1013,3 hPa 0,0 l/m 10,8 km/h (2 Bft) 0 min 0 min 12,9 km/h (3 Bft)
14.09.2010 20:50 21,3 C 18,7 C 0,0 UV-I 0,0 C 62 % 76 % 0 % 1013,3 hPa 0,0 l/m 11,2 km/h (2 Bft) 0 min 0 min 11,6 km/h (2 Bft)
14.09.2010 20:52 21,2 C 18,7 C 0,0 UV-I 0,0 C 62 % 76 % 0 % 1013,3 hPa 0,0 l/m 11,2 km/h (2 Bft) 0 min 0 min 19,0 km/h (3 Bft)
14.09.2010 20:54 21,2 C 18,7 C 0,0 UV-I 0,0 C 62 % 76 % 0 % 1013,3 hPa 0,0 l/m 10,8 km/h (2 Bft) 0 min 0 min 19,0 km/h (3 Bft)
14.09.2010 20:56 21,2 C 18,7 C 0,0 UV-I 0,0 C 62 % 76 % 0 % 1013,3 hPa 0,0 l/m 11,2 km/h (2 Bft) 0 min 0 min 13,5 km/h (3 Bft)
14.09.2010 20:58 21,2 C 18,7 C 0,0 UV-I 0,0 C 62 % 76 % 0 % 1013,3 hPa 0,0 l/m 12,0 km/h (2 Bft) 0 min 0 min 13,5 km/h (3 Bft)
14.09.2010 21:00 21,2 C 18,7 C 0,0 UV-I 0,0 C 62 % 76 % 0 % 1013,3 hPa 0,0 l/m 12,4 km/h (3 Bft) 0 min 0 min 21,6 km/h (4 Bft)
14.09.2010 21:02 21,2 C 18,7 C 0,0 UV-I 0,0 C 62 % 76 % 0 % 1013,3 hPa 0,0 l/m 11,6 km/h (2 Bft) 0 min 0 min 21,6 km/h (4 Bft)
14.09.2010 21:04 21,2 C 18,7 C 0,0 UV-I 0,0 C 62 % 76 % 0 % 1013,3 hPa 0,0 l/m 12,4 km/h (3 Bft) 0 min 0 min 21,6 km/h (4 Bft)
14.09.2010 21:06 21,1 C 18,7 C 0,0 UV-I 0,0 C 62 % 76 % 0 % 1013,1 hPa 0,0 l/m 12,4 km/h (3 Bft) 0 min 0 min 10,3 km/h (2 Bft)
14.09.2010 21:08 21,1 C 18,7 C 0,0 UV-I 0,0 C 62 % 76 % 0 % 1013,1 hPa 0,0 l/m 11,6 km/h (2 Bft) 0 min 0 min 10,6 km/h (2 Bft)
14.09.2010 21:10 21,1 C 18,7 C 0,0 UV-I 0,0 C 63 % 76 % 0 % 1013,1 hPa 0,0 l/m 12,8 km/h (3 Bft) 0 min 0 min 14,2 km/h (3 Bft)
14.09.2010 21:12 21,1 C 18,7 C 0,0 UV-I 0,0 C 63 % 76 % 0 % 1013,1 hPa 0,0 l/m 12,4 km/h (3 Bft) 0 min 0 min 14,2 km/h (3 Bft)
14.09.2010 21:14 21,0 C 18,8 C 0,0 UV-I 0,0 C 63 % 76 % 0 % 1013,1 hPa 0,0 l/m 11,6 km/h (2 Bft) 0 min 0 min 8,7 km/h (2 Bft)
14.09.2010 21:16 21,0 C 18,7 C 0,0 UV-I 0,0 C 63 % 76 % 0 % 1013,1 hPa 0,0 l/m 10,8 km/h (2 Bft) 0 min 0 min 11,9 km/h (2 Bft)
14.09.2010 21:18 21,0 C 18,7 C 0,1 UV-I 0,0 C 63 % 76 % 0 % 1013,1 hPa 0,0 l/m 12,0 km/h (2 Bft) 0 min 0 min 24,1 km/h (4 Bft)
14.09.2010 21:20 21,0 C 18,8 C 0,1 UV-I 0,0 C 63 % 76 % 0 % 1013,1 hPa 0,0 l/m 11,2 km/h (2 Bft) 0 min 0 min 24,1 km/h (4 Bft)
14.09.2010 21:22 21,0 C 18,7 C 0,1 UV-I 0,0 C 63 % 76 % 0 % 1013,1 hPa 0,0 l/m 10,8 km/h (2 Bft) 0 min 0 min 8,0 km/h (2 Bft)
14.09.2010 21:24 21,0 C 18,8 C 0,0 UV-I 0,0 C 63 % 76 % 0 % 1013,1 hPa 0,0 l/m 10,8 km/h (2 Bft) 0 min 0 min 12,9 km/h (3 Bft)
14.09.2010 21:26 21,0 C 18,8 C 0,0 UV-I 0,0 C 63 % 76 % 0 % 1012,8 hPa 0,0 l/m 11,6 km/h (2 Bft) 0 min 0 min 12,9 km/h (3 Bft)
14.09.2010 21:28 21,0 C 18,8 C 0,0 UV-I 0,0 C 63 % 76 % 0 % 1012,8 hPa 0,0 l/m 10,8 km/h (2 Bft) 0 min 0 min 11,6 km/h (2 Bft)
14.09.2010 21:30 21,0 C 18,8 C 0,0 UV-I 0,0 C 63 % 75 % 0 % 1012,8 hPa 0,0 l/m 11,2 km/h (2 Bft) 0 min 0 min 17,4 km/h (3 Bft)
14.09.2010 21:32 20,9 C 18,9 C 0,0 UV-I 0,0 C 63 % 75 % 0 % 1012,8 hPa 0,0 l/m 10,8 km/h (2 Bft) 0 min 2 min 17,4 km/h (3 Bft)
14.09.2010 21:34 20,9 C 18,8 C 0,1 UV-I 0,0 C 63 % 76 % 0 % 1012,8 hPa 0,0 l/m 11,6 km/h (2 Bft) 0 min 2 min 11,6 km/h (2 Bft)
14.09.2010 21:36 20,9 C 18,8 C 0,1 UV-I 0,0 C 63 % 76 % 0 % 1012,8 hPa 0,0 l/m 12,0 km/h (2 Bft) 0 min 2 min 11,6 km/h (2 Bft)
14.09.2010 21:38 20,9 C 18,7 C 0,1 UV-I 0,0 C 63 % 77 % 0 % 1012,8 hPa 0,0 l/m 13,3 km/h (3 Bft) 0 min 2 min 20,9 km/h (4 Bft)
14.09.2010 21:40 20,9 C 18,6 C 0,1 UV-I 0,0 C 63 % 78 % 0 % 1012,8 hPa 0,0 l/m 12,4 km/h (3 Bft) 0 min 2 min 20,9 km/h (4 Bft)
14.09.2010 21:42 20,8 C 18,5 C 0,1 UV-I 0,0 C 64 % 78 % 0 % 1012,8 hPa 0,0 l/m 13,7 km/h (3 Bft) 0 min 0 min 14,8 km/h (3 Bft)
14.09.2010 21:44 20,8 C 18,4 C 0,0 UV-I 0,0 C 64 % 79 % 0 % 1012,8 hPa 0,0 l/m 14,1 km/h (3 Bft) 0 min 0 min 14,8 km/h (3 Bft)
14.09.2010 21:46 20,8 C 18,3 C 0,0 UV-I 0,0 C 64 % 79 % 0 % 1012,6 hPa 0,0 l/m 12,4 km/h (3 Bft) 0 min 0 min 13,5 km/h (3 Bft)
14.09.2010 21:48 20,8 C 18,3 C 0,1 UV-I 0,0 C 64 % 80 % 0 % 1012,6 hPa 0,0 l/m 12,0 km/h (2 Bft) 0 min 0 min 10,0 km/h (2 Bft)
14.09.2010 21:50 20,8 C 18,1 C 0,1 UV-I 0,0 C 64 % 80 % 0 % 1012,6 hPa 0,0 l/m 11,2 km/h (2 Bft) 0 min 0 min 11,6 km/h (2 Bft)
14.09.2010 21:52 20,8 C 18,0 C 0,1 UV-I 0,0 C 64 % 81 % 0 % 1012,6 hPa 0,0 l/m 10,4 km/h (2 Bft) 0 min 0 min 11,6 km/h (2 Bft)
14.09.2010 21:54 20,8 C 18,1 C 0,0 UV-I 0,0 C 64 % 81 % 0 % 1012,6 hPa 0,0 l/m 8,4 km/h (2 Bft) 0 min 0 min 12,9 km/h (3 Bft)
14.09.2010 21:56 20,8 C 18,0 C 0,0 UV-I 0,0 C 65 % 81 % 0 % 1012,6 hPa 0,0 l/m 8,8 km/h (2 Bft) 0 min 0 min 12,9 km/h (3 Bft)
14.09.2010 21:58 20,8 C 18,0 C 0,0 UV-I 0,0 C 65 % 81 % 0 % 1012,6 hPa 0,0 l/m 8,8 km/h (2 Bft) 0 min 0 min 10,9 km/h (2 Bft)
14.09.2010 22:00 20,8 C 18,0 C 0,0 UV-I 0,0 C 65 % 81 % 0 % 1012,6 hPa 0,0 l/m 8,8 km/h (2 Bft) 0 min 0 min 10,0 km/h (2 Bft)
14.09.2010 22:02 20,8 C 18,1 C 0,0 UV-I 0,0 C 65 % 81 % 0 % 1012,6 hPa 0,0 l/m 8,8 km/h (2 Bft) 0 min 0 min 8,0 km/h (2 Bft)
14.09.2010 22:04 20,8 C 18,0 C 0,0 UV-I 0,0 C 65 % 80 % 0 % 1012,6 hPa 0,0 l/m 10,0 km/h (2 Bft) 0 min 0 min 17,7 km/h (3 Bft)
14.09.2010 22:06 20,8 C 18,1 C 0,0 UV-I 0,0 C 65 % 80 % 0 % 1012,3 hPa 0,0 l/m 9,6 km/h (2 Bft) 0 min 0 min 5,8 km/h (2 Bft)
14.09.2010 22:08 20,8 C 18,2 C 0,0 UV-I 0,0 C 65 % 80 % 0 % 1012,3 hPa 0,0 l/m 9,2 km/h (2 Bft) 0 min 0 min 5,8 km/h (2 Bft)
14.09.2010 22:10 20,7 C 18,3 C 0,0 UV-I 0,0 C 65 % 80 % 0 % 1012,3 hPa 0,0 l/m 8,4 km/h (2 Bft) 0 min 0 min 9,7 km/h (2 Bft)
14.09.2010 22:12 20,8 C 18,2 C 0,0 UV-I 0,0 C 65 % 79 % 0 % 1012,3 hPa 0,0 l/m 8,8 km/h (2 Bft) 0 min 0 min 9,7 km/h (2 Bft)
14.09.2010 22:14 20,7 C 18,3 C 0,0 UV-I 0,0 C 65 % 79 % 0 % 1012,3 hPa 0,0 l/m 8,8 km/h (2 Bft) 0 min 0 min 10,6 km/h (2 Bft)
14.09.2010 22:16 20,7 C 18,3 C 0,0 UV-I 0,0 C 65 % 79 % 0 % 1012,3 hPa 0,0 l/m 8,0 km/h (2 Bft) 0 min 0 min 10,6 km/h (2 Bft)
14.09.2010 22:18 20,7 C 18,4 C 0,1 UV-I 0,0 C 65 % 79 % 0 % 1012,3 hPa 0,0 l/m 9,2 km/h (2 Bft) 0 min 0 min 10,6 km/h (2 Bft)
14.09.2010 22:20 20,7 C 18,4 C 0,1 UV-I 0,0 C 65 % 79 % 0 % 1012,3 hPa 0,0 l/m 10,8 km/h (2 Bft) 0 min 0 min 14,2 km/h (3 Bft)
14.09.2010 22:22 20,7 C 18,4 C 0,1 UV-I 0,0 C 65 % 79 % 0 % 1012,3 hPa 0,0 l/m 11,6 km/h (2 Bft) 0 min 0 min 14,2 km/h (3 Bft)
14.09.2010 22:24 20,7 C 18,4 C 0,1 UV-I 0,0 C 65 % 78 % 0 % 1012,3 hPa 0,0 l/m 12,4 km/h (3 Bft) 0 min 0 min 14,2 km/h (3 Bft)
14.09.2010 22:26 20,7 C 18,5 C 0,1 UV-I 0,0 C 65 % 79 % 0 % 1011,9 hPa 0,0 l/m 12,8 km/h (3 Bft) 0 min 2 min 20,0 km/h (4 Bft)
14.09.2010 22:28 20,7 C 18,5 C 0,0 UV-I 0,0 C 65 % 79 % 0 % 1011,9 hPa 0,0 l/m 12,8 km/h (3 Bft) 0 min 2 min 20,0 km/h (4 Bft)
14.09.2010 22:30 20,7 C 18,5 C 0,0 UV-I 0,0 C 65 % 80 % 0 % 1011,9 hPa 0,0 l/m 12,0 km/h (2 Bft) 0 min 2 min 21,6 km/h (4 Bft)
14.09.2010 22:32 20,7 C 18,4 C 0,0 UV-I 0,0 C 65 % 80 % 0 % 1011,9 hPa 0,0 l/m 11,6 km/h (2 Bft) 0 min 0 min 21,6 km/h (4 Bft)
14.09.2010 22:34 20,6 C 18,3 C 0,1 UV-I 0,0 C 65 % 79 % 0 % 1011,9 hPa 0,0 l/m 11,2 km/h (2 Bft) 0 min 0 min 18,7 km/h (3 Bft)
14.09.2010 22:36 20,6 C 18,3 C 0,1 UV-I 0,0 C 65 % 79 % 0 % 1011,9 hPa 0,0 l/m 11,2 km/h (2 Bft) 0 min 0 min 12,2 km/h (2 Bft)
14.09.2010 22:38 20,6 C 18,4 C 0,1 UV-I 0,0 C 65 % 80 % 0 % 1011,9 hPa 0,0 l/m 10,8 km/h (2 Bft) 0 min 0 min 9,0 km/h (2 Bft)
14.09.2010 22:40 20,6 C 18,4 C 0,1 UV-I 0,0 C 65 % 80 % 0 % 1011,9 hPa 0,0 l/m 11,2 km/h (2 Bft) 0 min 0 min 8,7 km/h (2 Bft)
14.09.2010 22:42 20,6 C 18,4 C 0,1 UV-I 0,0 C 65 % 80 % 0 % 1011,9 hPa 0,0 l/m 10,8 km/h (2 Bft) 0 min 0 min 9,7 km/h (2 Bft)
14.09.2010 22:44 20,6 C 18,5 C 0,0 UV-I 0,0 C 65 % 80 % 0 % 1011,9 hPa 0,0 l/m 10,4 km/h (2 Bft) 0 min 2 min 18,7 km/h (3 Bft)
14.09.2010 22:46 20,6 C 18,5 C 0,0 UV-I 0,0 C 65 % 79 % 0 % 1011,9 hPa 0,0 l/m 11,2 km/h (2 Bft) 0 min 2 min 18,7 km/h (3 Bft)
14.09.2010 22:48 20,6 C 18,5 C 0,0 UV-I 0,0 C 65 % 79 % 0 % 1011,9 hPa 0,0 l/m 9,6 km/h (2 Bft) 0 min 0 min 9,0 km/h (2 Bft)
14.09.2010 22:50 20,6 C 18,5 C 0,0 UV-I 0,0 C 65 % 80 % 0 % 1011,9 hPa 0,0 l/m 9,2 km/h (2 Bft) 0 min 2 min 9,3 km/h (2 Bft)
14.09.2010 22:52 20,6 C 18,4 C 0,0 UV-I 0,0 C 65 % 80 % 0 % 1011,9 hPa 0,0 l/m 9,2 km/h (2 Bft) 0 min 2 min 12,2 km/h (2 Bft)
14.09.2010 22:54 20,6 C 18,4 C 0,0 UV-I 0,0 C 65 % 80 % 0 % 1011,9 hPa 0,0 l/m 9,6 km/h (2 Bft) 0 min 2 min 16,4 km/h (3 Bft)
14.09.2010 22:56 20,6 C 18,3 C 0,0 UV-I 0,0 C 65 % 81 % 0 % 1011,9 hPa 0,0 l/m 9,2 km/h (2 Bft) 0 min 2 min 16,4 km/h (3 Bft)
14.09.2010 22:58 20,6 C 18,3 C 0,0 UV-I 0,0 C 65 % 81 % 0 % 1011,9 hPa 0,0 l/m 9,6 km/h (2 Bft) 0 min 2 min 10,3 km/h (2 Bft)
14.09.2010 23:00 20,6 C 18,1 C 0,0 UV-I 0,0 C 66 % 81 % 0 % 1011,9 hPa 0,0 l/m 10,0 km/h (2 Bft) 0 min 2 min 8,7 km/h (2 Bft)
14.09.2010 23:02 20,6 C 18,0 C 0,0 UV-I 0,0 C 66 % 82 % 0 % 1011,9 hPa 0,0 l/m 10,4 km/h (2 Bft) 0 min 2 min 16,7 km/h (3 Bft)
14.09.2010 23:04 20,6 C 18,0 C 0,0 UV-I 0,0 C 66 % 82 % 0 % 1011,9 hPa 0,0 l/m 10,4 km/h (2 Bft) 0 min 2 min 16,7 km/h (3 Bft)
14.09.2010 23:06 20,6 C 17,9 C 0,0 UV-I 0,0 C 66 % 83 % 0 % 1011,6 hPa 0,0 l/m 9,6 km/h (2 Bft) 0 min 2 min 5,5 km/h (1 Bft)
14.09.2010 23:08 20,6 C 17,8 C 0,0 UV-I 0,0 C 66 % 83 % 0 % 1011,6 hPa 0,0 l/m 8,8 km/h (2 Bft) 0 min 2 min 12,2 km/h (2 Bft)
14.09.2010 23:10 20,6 C 17,9 C 0,0 UV-I 0,0 C 66 % 83 % 0 % 1011,6 hPa 0,0 l/m 8,8 km/h (2 Bft) 0 min 2 min 12,2 km/h (2 Bft)
14.09.2010 23:12 20,6 C 17,7 C 0,0 UV-I 0,0 C 66 % 83 % 0 % 1011,6 hPa 0,0 l/m 8,8 km/h (2 Bft) 0 min 2 min 9,7 km/h (2 Bft)
14.09.2010 23:14 20,5 C 17,7 C 0,0 UV-I 0,0 C 66 % 83 % 0 % 1011,6 hPa 0,0 l/m 8,4 km/h (2 Bft) 0 min 0 min 10,0 km/h (2 Bft)
14.09.2010 23:16 20,6 C 17,6 C 0,0 UV-I 0,0 C 67 % 83 % 0 % 1011,6 hPa 0,0 l/m 8,0 km/h (2 Bft) 0 min 0 min 10,0 km/h (2 Bft)
14.09.2010 23:18 20,5 C 17,6 C 0,0 UV-I 0,0 C 67 % 84 % 0 % 1011,6 hPa 0,0 l/m 9,6 km/h (2 Bft) 0 min 2 min 18,0 km/h (3 Bft)
14.09.2010 23:20 20,5 C 17,6 C 0,0 UV-I 0,0 C 67 % 84 % 0 % 1011,6 hPa 0,0 l/m 10,0 km/h (2 Bft) 0 min 2 min 18,0 km/h (3 Bft)
14.09.2010 23:22 20,5 C 17,6 C 0,0 UV-I 0,0 C 67 % 84 % 0 % 1011,6 hPa 0,0 l/m 10,4 km/h (2 Bft) 0 min 2 min 11,3 km/h (2 Bft)
14.09.2010 23:24 20,5 C 17,7 C 0,0 UV-I 0,0 C 67 % 84 % 0 % 1011,6 hPa 0,0 l/m 10,0 km/h (2 Bft) 0 min 0 min 11,3 km/h (2 Bft)
14.09.2010 23:26 20,5 C 17,6 C 0,0 UV-I 0,0 C 67 % 84 % 0 % 1011,4 hPa 0,0 l/m 10,4 km/h (2 Bft) 0 min 0 min 10,3 km/h (2 Bft)
14.09.2010 23:28 20,5 C 17,6 C 0,0 UV-I 0,0 C 67 % 84 % 0 % 1011,4 hPa 0,0 l/m 9,2 km/h (2 Bft) 0 min 0 min 10,3 km/h (2 Bft)
14.09.2010 23:30 20,5 C 17,6 C 0,0 UV-I 0,0 C 67 % 84 % 0 % 1011,4 hPa 0,0 l/m 9,2 km/h (2 Bft) 0 min 0 min 29,0 km/h (5 Bft)
14.09.2010 23:32 20,5 C 17,6 C 0,0 UV-I 0,0 C 67 % 84 % 0 % 1011,4 hPa 0,0 l/m 10,4 km/h (2 Bft) 0 min 0 min 29,0 km/h (5 Bft)
14.09.2010 23:34 20,5 C 17,6 C 0,0 UV-I 0,0 C 67 % 85 % 0 % 1011,4 hPa 0,1 l/m 10,0 km/h (2 Bft) 0 min 2 min 12,2 km/h (2 Bft)
14.09.2010 23:36 20,5 C 17,6 C 0,0 UV-I 0,0 C 67 % 85 % 0 % 1011,4 hPa 0,0 l/m 10,4 km/h (2 Bft) 0 min 2 min 12,2 km/h (2 Bft)
14.09.2010 23:38 20,5 C 17,6 C 0,0 UV-I 0,0 C 67 % 85 % 0 % 1011,4 hPa 0,0 l/m 10,8 km/h (2 Bft) 0 min 0 min 15,1 km/h (3 Bft)
14.09.2010 23:40 20,5 C 17,5 C 0,0 UV-I 0,0 C 67 % 85 % 0 % 1011,4 hPa 0,0 l/m 11,6 km/h (2 Bft) 0 min 2 min 15,4 km/h (3 Bft)
14.09.2010 23:42 20,4 C 17,5 C 0,0 UV-I 0,0 C 67 % 85 % 0 % 1011,4 hPa 0,0 l/m 11,2 km/h (2 Bft) 0 min 2 min 15,4 km/h (3 Bft)
14.09.2010 23:44 20,4 C 17,4 C 0,0 UV-I 0,0 C 67 % 86 % 0 % 1011,4 hPa 0,0 l/m 10,8 km/h (2 Bft) 0 min 2 min 12,6 km/h (3 Bft)
14.09.2010 23:46 20,4 C 17,5 C 0,0 UV-I 0,0 C 68 % 86 % 0 % 1011,1 hPa 0,0 l/m 10,4 km/h (2 Bft) 0 min 2 min 12,6 km/h (3 Bft)
14.09.2010 23:48 20,4 C 17,4 C 0,0 UV-I 0,0 C 68 % 86 % 0 % 1011,1 hPa 0,0 l/m 10,4 km/h (2 Bft) 0 min 2 min 10,3 km/h (2 Bft)
14.09.2010 23:51 20,4 C 17,3 C 0,0 UV-I 0,0 C 68 % 86 % 0 % 1011,1 hPa 0,0 l/m 10,0 km/h (2 Bft) 0 min 2 min 11,3 km/h (2 Bft)
14.09.2010 23:52 20,4 C 17,3 C 0,0 UV-I 0,0 C 68 % 86 % 0 % 1011,1 hPa 0,0 l/m 9,6 km/h (2 Bft) 0 min 1 min 12,2 km/h (2 Bft)
14.09.2010 23:54 20,4 C 17,3 C 0,1 UV-I 0,0 C 68 % 86 % 0 % 1011,1 hPa 0,1 l/m 10,0 km/h (2 Bft) 0 min 0 min 12,2 km/h (2 Bft)
14.09.2010 23:56 20,4 C 17,2 C 0,1 UV-I 0,0 C 68 % 86 % 0 % 1011,1 hPa 0,0 l/m 9,2 km/h (2 Bft) 0 min 2 min 8,4 km/h (2 Bft)
14.09.2010 23:58 20,4 C 17,2 C 0,0 UV-I 0,0 C 68 % 86 % 0 % 1011,1 hPa 0,0 l/m 8,8 km/h (2 Bft) 0 min 2 min 14,5 km/h (3 Bft)
_ Min-Zeit 06:48 00:50 00:00 00:00 00:00 15:08 00:00 23:46 - 01:22 - - 01:04
Minimum _ 19,2 C 14,8 C 0,0 UV-I 0,0 C 56 % 72 % 0 % 1011,1 hPa - 0,8 km/h (0 Bft) - - 0,0 km/h (0 Bft)
_ Max-Zeit 15:38 15:06 13:34 15:08 23:46 23:44 15:08 00:00 23:34 11:42 00:00 00:00 11:26
Maximum _ 22,2 C 19,1 C 4,0 UV-I 1,9 C 68 % 86 % 54 % 1023,1 hPa 0,1 l/m 16,5 km/h
NW (3 Bft)
0 min 2 min 52,8 km/h
S (7 Bft)
Durchschnitt _ 20,6 C 17,0 C 0,9 UV-I 0,3 C 62 % 79 % 9 % 1017,4 hPa #0,2 l/m 8,8 km/h (2 Bft) #0 min. #2:11 h 12,4 km/h (3 Bft)
© 2012 W. Hausmann